Time,TemperatureF,DewpointF,PressureIn,WindDirection,WindDirectionDegrees,WindSpeedMPH,WindSpeedGustMPH,Humidity,HourlyPrecipIn,Conditions,Clouds,dailyrainin,SoftwareType,DateUTC
2013-02-19 00:00:00,29.0,-10.3,30.10,West,281,0.0,6.0,17,0.00,,---,0.00,VWS V14.01,2013-02-19 05:00:00,
2013-02-19 00:01:00,29.0,-10.3,30.10,WSW,248,4.0,6.0,17,0.00,,---,0.00,VWS V14.01,2013-02-19 05:01:00,
2013-02-19 00:05:00,29.0,-9.2,30.10,SW,224,0.0,4.0,18,0.00,,---,0.00,VWS V14.01,2013-02-19 05:05:00,
2013-02-19 00:06:00,29.0,-9.2,30.10,SW,224,0.0,4.0,18,0.00,,---,0.00,VWS V14.01,2013-02-19 05:06:00,
2013-02-19 00:10:00,29.1,-9.1,30.10,West,261,2.0,5.0,18,0.00,,---,0.00,VWS V14.01,2013-02-19 05:10:00,
2013-02-19 00:11:00,29.1,-8.0,30.10,West,261,1.0,5.0,19,0.00,,---,0.00,VWS V14.01,2013-02-19 05:11:00,
2013-02-19 00:15:00,29.3,-6.8,30.11,WSW,254,0.0,5.0,20,0.00,,---,0.00,VWS V14.01,2013-02-19 05:15:00,
2013-02-19 00:16:00,29.3,-6.8,30.11,WSW,254,0.0,0.0,20,0.00,,---,0.00,VWS V14.01,2013-02-19 05:16:00,
2013-02-19 00:20:00,29.3,-5.8,30.11,WSW,254,2.0,2.0,21,0.00,,---,0.00,VWS V14.01,2013-02-19 05:20:00,
2013-02-19 00:21:00,29.4,-5.7,30.11,WSW,254,0.0,2.0,21,0.00,,---,0.00,VWS V14.01,2013-02-19 05:21:00,
2013-02-19 00:25:00,29.4,-3.8,30.11,SW,234,2.0,6.0,23,0.00,,---,0.00,VWS V14.01,2013-02-19 05:25:00,
2013-02-19 00:26:00,29.4,-3.8,30.11,SW,234,0.0,6.0,23,0.00,,---,0.00,VWS V14.01,2013-02-19 05:26:00,
2013-02-19 00:30:00,29.4,-2.9,30.11,SW,234,0.0,6.0,24,0.00,,---,0.00,VWS V14.01,2013-02-19 05:30:00,
2013-02-19 00:31:00,29.4,-2.9,30.11,SW,234,0.0,0.0,24,0.00,,---,0.00,VWS V14.01,2013-02-19 05:31:00,
2013-02-19 00:35:00,29.4,-1.2,30.11,SW,236,0.0,3.0,26,0.00,,---,0.00,VWS V14.01,2013-02-19 05:35:00,
2013-02-19 00:36:00,29.4,-1.2,30.11,SW,236,0.0,3.0,26,0.00,,---,0.00,VWS V14.01,2013-02-19 05:36:00,
2013-02-19 00:40:00,29.4,-0.4,30.11,SW,236,1.0,3.0,27,0.00,,---,0.00,VWS V14.01,2013-02-19 05:40:00,
2013-02-19 00:41:00,29.4,-0.4,30.11,SW,236,1.0,3.0,27,0.00,,---,0.00,VWS V14.01,2013-02-19 05:41:00,
2013-02-19 00:45:00,29.5,-0.3,30.11,SW,236,2.0,3.0,27,0.00,,---,0.00,VWS V14.01,2013-02-19 05:45:00,
2013-02-19 00:46:00,29.5,-0.3,30.11,SW,236,0.0,2.0,27,0.00,,---,0.00,VWS V14.01,2013-02-19 05:46:00,
2013-02-19 00:51:00,29.5,-0.3,30.11,SW,236,1.0,2.0,27,0.00,,---,0.00,VWS V14.01,2013-02-19 05:51:00,
2013-02-19 00:56:00,29.5,1.2,30.11,WSW,254,0.0,5.0,29,0.00,,---,0.00,VWS V14.01,2013-02-19 05:56:00,
2013-02-19 01:01:00,29.8,2.9,30.11,WSW,254,0.0,0.0,31,0.00,,---,0.00,VWS V14.01,2013-02-19 06:01:00,
2013-02-19 01:06:00,30.0,3.0,30.11,WSW,253,0.0,3.0,31,0.00,,---,0.00,VWS V14.01,2013-02-19 06:06:00,
2013-02-19 01:07:00,30.0,3.0,30.11,WSW,254,0.0,3.0,31,0.00,,---,0.00,VWS V14.01,2013-02-19 06:07:00,
2013-02-19 01:11:00,30.0,3.7,30.11,WSW,254,0.0,4.0,32,0.00,,---,0.00,VWS V14.01,2013-02-19 06:11:00,
2013-02-19 01:12:00,30.0,3.7,30.11,WSW,254,0.0,4.0,32,0.00,,---,0.00,VWS V14.01,2013-02-19 06:12:00,
2013-02-19 01:16:00,30.0,4.4,30.10,WSW,254,1.0,1.0,33,0.00,,---,0.00,VWS V14.01,2013-02-19 06:16:00,
2013-02-19 01:17:00,30.0,4.4,30.10,WSW,254,2.0,2.0,33,0.00,,---,0.00,VWS V14.01,2013-02-19 06:17:00,
2013-02-19 01:21:00,29.8,4.9,30.10,NW,306,3.0,4.0,34,0.00,,---,0.00,VWS V14.01,2013-02-19 06:21:00,
2013-02-19 01:22:00,29.8,4.9,30.10,NW,306,1.0,4.0,34,0.00,,---,0.00,VWS V14.01,2013-02-19 06:22:00,
2013-02-19 01:26:00,29.8,4.9,30.10,WNW,301,0.0,4.0,34,0.00,,---,0.00,VWS V14.01,2013-02-19 06:26:00,
2013-02-19 01:27:00,29.8,4.9,30.10,WNW,301,0.0,4.0,34,0.00,,---,0.00,VWS V14.01,2013-02-19 06:27:00,
2013-02-19 01:31:00,29.8,5.5,30.10,WNW,301,0.0,0.0,35,0.00,,---,0.00,VWS V14.01,2013-02-19 06:31:00,
2013-02-19 01:32:00,29.8,5.5,30.10,WNW,301,0.0,3.0,35,0.00,,---,0.00,VWS V14.01,2013-02-19 06:32:00,
2013-02-19 01:36:00,29.8,5.5,30.10,WNW,301,0.0,3.0,35,0.00,,---,0.00,VWS V14.01,2013-02-19 06:36:00,
2013-02-19 01:37:00,29.8,5.5,30.10,WNW,301,0.0,3.0,35,0.00,,---,0.00,VWS V14.01,2013-02-19 06:37:00,
2013-02-19 01:41:00,29.8,5.5,30.10,WNW,301,0.0,3.0,35,0.00,,---,0.00,VWS V14.01,2013-02-19 06:41:00,
2013-02-19 01:42:00,29.8,5.5,30.10,WNW,301,0.0,3.0,35,0.00,,---,0.00,VWS V14.01,2013-02-19 06:42:00,
2013-02-19 01:43:00,29.8,5.5,30.10,WNW,301,0.0,3.0,35,0.00,,---,0.00,VWS V14.01,2013-02-19 06:43:00,
2013-02-19 01:46:00,29.7,5.4,30.10,WNW,301,0.0,0.0,35,0.00,,---,0.00,VWS V14.01,2013-02-19 06:46:00,
2013-02-19 01:47:00,29.5,5.2,30.10,WNW,301,0.0,0.0,35,0.00,,---,0.00,VWS V14.01,2013-02-19 06:47:00,
2013-02-19 01:48:00,29.5,5.2,30.10,WNW,301,0.0,0.0,35,0.00,,---,0.00,VWS V14.01,2013-02-19 06:48:00,
2013-02-19 01:52:00,29.5,5.8,30.10,WNW,301,0.0,1.0,36,0.00,,---,0.00,VWS V14.01,2013-02-19 06:52:00,
2013-02-19 01:53:00,29.5,5.8,30.10,WNW,301,0.0,1.0,36,0.00,,---,0.00,VWS V14.01,2013-02-19 06:53:00,
2013-02-19 01:57:00,29.4,5.8,30.10,WNW,301,0.0,1.0,36,0.00,,---,0.00,VWS V14.01,2013-02-19 06:57:00,
2013-02-19 01:58:00,29.4,5.8,30.10,WNW,301,0.0,1.0,36,0.00,,---,0.00,VWS V14.01,2013-02-19 06:58:00,
2013-02-19 02:02:00,29.4,5.8,30.09,WNW,301,0.0,0.0,36,0.00,,---,0.00,VWS V14.01,2013-02-19 07:02:00,
2013-02-19 02:03:00,29.4,5.8,30.09,WNW,301,0.0,0.0,36,0.00,,---,0.00,VWS V14.01,2013-02-19 07:03:00,
2013-02-19 02:07:00,29.3,5.7,30.09,WNW,301,0.0,1.0,36,0.00,,---,0.00,VWS V14.01,2013-02-19 07:07:00,
2013-02-19 02:08:00,29.3,5.7,30.09,WNW,301,0.0,1.0,36,0.00,,---,0.00,VWS V14.01,2013-02-19 07:08:00,
2013-02-19 02:12:00,29.1,6.1,30.09,WNW,301,0.0,1.0,37,0.00,,---,0.00,VWS V14.01,2013-02-19 07:12:00,
2013-02-19 02:13:00,29.0,6.0,30.09,WNW,301,0.0,1.0,37,0.00,,---,0.00,VWS V14.01,2013-02-19 07:13:00,
2013-02-19 02:17:00,28.8,5.8,30.07,WNW,301,0.0,0.0,37,0.00,,---,0.00,VWS V14.01,2013-02-19 07:17:00,
2013-02-19 02:18:00,28.8,6.4,30.07,WNW,301,0.0,0.0,38,0.00,,---,0.00,VWS V14.01,2013-02-19 07:18:00,
2013-02-19 02:19:00,28.8,6.4,30.07,WNW,301,0.0,0.0,38,0.00,,---,0.00,VWS V14.01,2013-02-19 07:19:00,
2013-02-19 02:22:00,28.8,6.4,30.07,WNW,301,0.0,1.0,38,0.00,,---,0.00,VWS V14.01,2013-02-19 07:22:00,
2013-02-19 02:23:00,28.8,6.4,30.07,WNW,301,0.0,1.0,38,0.00,,---,0.00,VWS V14.01,2013-02-19 07:23:00,
2013-02-19 02:24:00,28.8,6.4,30.07,WNW,301,0.0,1.0,38,0.00,,---,0.00,VWS V14.01,2013-02-19 07:24:00,
2013-02-19 02:27:00,28.8,6.4,30.07,WNW,301,0.0,1.0,38,0.00,,---,0.00,VWS V14.01,2013-02-19 07:27:00,
2013-02-19 02:28:00,28.8,6.4,30.07,WNW,301,0.0,1.0,38,0.00,,---,0.00,VWS V14.01,2013-02-19 07:28:00,
2013-02-19 02:29:00,28.7,6.3,30.07,WNW,301,0.0,1.0,38,0.00,,---,0.00,VWS V14.01,2013-02-19 07:29:00,
2013-02-19 02:32:00,28.5,6.7,30.07,WNW,301,0.0,0.0,39,0.00,,---,0.00,VWS V14.01,2013-02-19 07:32:00,
2013-02-19 02:33:00,28.4,6.6,30.07,WNW,301,0.0,0.0,39,0.00,,---,0.00,VWS V14.01,2013-02-19 07:33:00,
2013-02-19 02:34:00,28.4,6.6,30.07,WNW,301,0.0,0.0,39,0.00,,---,0.00,VWS V14.01,2013-02-19 07:34:00,
2013-02-19 02:37:00,28.1,6.9,30.07,WNW,301,0.0,0.0,40,0.00,,---,0.00,VWS V14.01,2013-02-19 07:37:00,
2013-02-19 02:38:00,27.9,6.7,30.07,WNW,301,0.0,0.0,40,0.00,,---,0.00,VWS V14.01,2013-02-19 07:38:00,
2013-02-19 02:39:00,27.9,6.7,30.07,WNW,301,0.0,0.0,40,0.00,,---,0.00,VWS V14.01,2013-02-19 07:39:00,
2013-02-19 02:42:00,27.6,7.0,30.07,WNW,301,0.0,0.0,41,0.00,,---,0.00,VWS V14.01,2013-02-19 07:42:00,
2013-02-19 02:43:00,27.6,7.0,30.07,WNW,301,0.0,0.0,41,0.00,,---,0.00,VWS V14.01,2013-02-19 07:43:00,
2013-02-19 02:44:00,27.5,6.9,30.07,WNW,301,0.0,0.0,41,0.00,,---,0.00,VWS V14.01,2013-02-19 07:44:00,
2013-02-19 02:47:00,27.0,7.0,30.07,WNW,301,0.0,0.0,42,0.00,,---,0.00,VWS V14.01,2013-02-19 07:47:00,
2013-02-19 02:48:00,26.7,6.2,30.07,WNW,301,0.0,0.0,41,0.00,,---,0.00,VWS V14.01,2013-02-19 07:48:00,
2013-02-19 02:49:00,26.4,6.4,30.07,WNW,301,0.0,0.0,42,0.00,,---,0.00,VWS V14.01,2013-02-19 07:49:00,
2013-02-19 02:52:00,25.8,6.4,30.07,WNW,301,0.0,0.0,43,0.00,,---,0.00,VWS V14.01,2013-02-19 07:52:00,
2013-02-19 02:53:00,25.6,6.2,30.07,WNW,301,0.0,0.0,43,0.00,,---,0.00,VWS V14.01,2013-02-19 07:53:00,
2013-02-19 02:54:00,25.4,6.0,30.07,WNW,301,0.0,0.0,43,0.00,,---,0.00,VWS V14.01,2013-02-19 07:54:00,
2013-02-19 02:57:00,25.3,6.9,30.07,WNW,301,0.0,0.0,45,0.00,,---,0.00,VWS V14.01,2013-02-19 07:57:00,
2013-02-19 02:58:00,25.1,6.8,30.07,WNW,301,0.0,0.0,45,0.00,,---,0.00,VWS V14.01,2013-02-19 07:58:00,
2013-02-19 03:00:00,25.1,7.2,30.07,WNW,301,0.0,0.0,46,0.00,,---,0.00,VWS V14.01,2013-02-19 08:00:00,
2013-02-19 03:03:00,25.0,7.2,30.06,WNW,301,0.0,0.0,46,0.00,,---,0.00,VWS V14.01,2013-02-19 08:03:00,
2013-02-19 03:05:00,25.0,7.2,30.06,WNW,301,0.0,0.0,46,0.00,,---,0.00,VWS V14.01,2013-02-19 08:05:00,
2013-02-19 03:08:00,24.8,7.4,30.06,WNW,301,0.0,0.0,47,0.00,,---,0.00,VWS V14.01,2013-02-19 08:08:00,
2013-02-19 03:10:00,24.8,7.4,30.06,WNW,301,0.0,0.0,47,0.00,,---,0.00,VWS V14.01,2013-02-19 08:10:00,
2013-02-19 03:13:00,24.7,7.3,30.06,WNW,301,0.0,0.0,47,0.00,,---,0.00,VWS V14.01,2013-02-19 08:13:00,
2013-02-19 03:14:00,24.7,7.3,30.06,WNW,301,0.0,0.0,47,0.00,,---,0.00,VWS V14.01,2013-02-19 08:14:00,
2013-02-19 03:15:00,24.5,7.2,30.06,WNW,301,0.0,0.0,47,0.00,,---,0.00,VWS V14.01,2013-02-19 08:15:00,
2013-02-19 03:18:00,24.4,7.5,30.06,WNW,301,0.0,0.0,48,0.00,,---,0.00,VWS V14.01,2013-02-19 08:18:00,
2013-02-19 03:19:00,24.4,7.5,30.06,WNW,301,0.0,0.0,48,0.00,,---,0.00,VWS V14.01,2013-02-19 08:19:00,
2013-02-19 03:20:00,24.2,7.8,30.06,WNW,301,0.0,0.0,49,0.00,,---,0.00,VWS V14.01,2013-02-19 08:20:00,
2013-02-19 03:23:00,24.2,7.8,30.06,WNW,301,0.0,0.0,49,0.00,,---,0.00,VWS V14.01,2013-02-19 08:23:00,
2013-02-19 03:24:00,24.1,7.7,30.06,WNW,301,0.0,0.0,49,0.00,,---,0.00,VWS V14.01,2013-02-19 08:24:00,
2013-02-19 03:25:00,24.1,7.7,30.06,WNW,301,0.0,0.0,49,0.00,,---,0.00,VWS V14.01,2013-02-19 08:25:00,
2013-02-19 03:28:00,23.9,7.5,30.06,WNW,301,0.0,0.0,49,0.00,,---,0.00,VWS V14.01,2013-02-19 08:28:00,
2013-02-19 03:29:00,23.9,7.5,30.06,WNW,301,0.0,0.0,49,0.00,,---,0.00,VWS V14.01,2013-02-19 08:29:00,
2013-02-19 03:30:00,23.8,7.4,30.06,WNW,301,0.0,0.0,49,0.00,,---,0.00,VWS V14.01,2013-02-19 08:30:00,
2013-02-19 03:33:00,23.8,7.9,30.06,WNW,301,0.0,0.0,50,0.00,,---,0.00,VWS V14.01,2013-02-19 08:33:00,
2013-02-19 03:34:00,23.8,7.9,30.06,WNW,301,0.0,0.0,50,0.00,,---,0.00,VWS V14.01,2013-02-19 08:34:00,
2013-02-19 03:35:00,23.8,7.9,30.06,WNW,301,0.0,0.0,50,0.00,,---,0.00,VWS V14.01,2013-02-19 08:35:00,
2013-02-19 03:38:00,23.9,8.0,30.06,WNW,301,0.0,0.0,50,0.00,,---,0.00,VWS V14.01,2013-02-19 08:38:00,
2013-02-19 03:39:00,23.9,8.0,30.06,WNW,301,0.0,0.0,50,0.00,,---,0.00,VWS V14.01,2013-02-19 08:39:00,
2013-02-19 03:40:00,24.1,8.2,30.06,WNW,301,0.0,0.0,50,0.00,,---,0.00,VWS V14.01,2013-02-19 08:40:00,
2013-02-19 03:43:00,24.1,8.2,30.06,WNW,301,0.0,0.0,50,0.00,,---,0.00,VWS V14.01,2013-02-19 08:43:00,
2013-02-19 03:44:00,24.2,8.7,30.06,WNW,301,0.0,0.0,51,0.00,,---,0.00,VWS V14.01,2013-02-19 08:44:00,
2013-02-19 03:45:00,24.2,8.7,30.06,WNW,301,0.0,0.0,51,0.00,,---,0.00,VWS V14.01,2013-02-19 08:45:00,
2013-02-19 03:48:00,24.4,8.4,30.06,WNW,301,0.0,0.0,50,0.00,,---,0.00,VWS V14.01,2013-02-19 08:48:00,
2013-02-19 03:49:00,24.2,7.8,30.06,WNW,301,0.0,0.0,49,0.00,,---,0.00,VWS V14.01,2013-02-19 08:49:00,
2013-02-19 03:50:00,24.2,7.8,30.06,WNW,301,0.0,0.0,49,0.00,,---,0.00,VWS V14.01,2013-02-19 08:50:00,
2013-02-19 03:51:00,24.2,7.8,30.06,WNW,301,0.0,0.0,49,0.00,,---,0.00,VWS V14.01,2013-02-19 08:51:00,
2013-02-19 03:53:00,23.9,7.5,30.06,WNW,301,0.0,0.0,49,0.00,,---,0.00,VWS V14.01,2013-02-19 08:53:00,
2013-02-19 03:54:00,23.8,7.9,30.06,WNW,301,0.0,0.0,50,0.00,,---,0.00,VWS V14.01,2013-02-19 08:54:00,
2013-02-19 03:55:00,23.6,7.7,30.06,WNW,301,0.0,0.0,50,0.00,,---,0.00,VWS V14.01,2013-02-19 08:55:00,
2013-02-19 03:56:00,23.6,7.7,30.06,WNW,301,0.0,0.0,50,0.00,,---,0.00,VWS V14.01,2013-02-19 08:56:00,
2013-02-19 03:58:00,23.5,8.1,30.06,WNW,301,0.0,0.0,51,0.00,,---,0.00,VWS V14.01,2013-02-19 08:58:00,
2013-02-19 03:59:00,23.3,7.9,30.06,WNW,301,0.0,0.0,51,0.00,,---,0.00,VWS V14.01,2013-02-19 08:59:00,
2013-02-19 04:00:00,23.2,7.8,30.06,WNW,301,0.0,0.0,51,0.00,,---,0.00,VWS V14.01,2013-02-19 09:00:00,
2013-02-19 04:01:00,23.2,7.8,30.06,WNW,301,0.0,0.0,51,0.00,,---,0.00,VWS V14.01,2013-02-19 09:01:00,
2013-02-19 04:03:00,23.2,8.2,30.06,WNW,301,0.0,0.0,52,0.00,,---,0.00,VWS V14.01,2013-02-19 09:03:00,
2013-02-19 04:04:00,23.0,8.0,30.06,WNW,301,0.0,0.0,52,0.00,,---,0.00,VWS V14.01,2013-02-19 09:04:00,
2013-02-19 04:05:00,23.0,8.0,30.06,WNW,301,0.0,0.0,52,0.00,,---,0.00,VWS V14.01,2013-02-19 09:05:00,
2013-02-19 04:06:00,23.0,8.0,30.06,WNW,301,0.0,0.0,52,0.00,,---,0.00,VWS V14.01,2013-02-19 09:06:00,
2013-02-19 04:08:00,22.9,7.9,30.06,WNW,301,0.0,0.0,52,0.00,,---,0.00,VWS V14.01,2013-02-19 09:08:00,
2013-02-19 04:09:00,22.7,7.7,30.06,WNW,301,0.0,0.0,52,0.00,,---,0.00,VWS V14.01,2013-02-19 09:09:00,
2013-02-19 04:10:00,22.5,7.5,30.06,WNW,301,0.0,0.0,52,0.00,,---,0.00,VWS V14.01,2013-02-19 09:10:00,
2013-02-19 04:11:00,22.5,7.5,30.06,WNW,301,0.0,0.0,52,0.00,,---,0.00,VWS V14.01,2013-02-19 09:11:00,
2013-02-19 04:13:00,22.4,7.9,30.06,WNW,301,0.0,0.0,53,0.00,,---,0.00,VWS V14.01,2013-02-19 09:13:00,
2013-02-19 04:14:00,22.1,7.6,30.06,WNW,301,0.0,0.0,53,0.00,,---,0.00,VWS V14.01,2013-02-19 09:14:00,
2013-02-19 04:16:00,22.1,7.6,30.06,WNW,301,0.0,0.0,53,0.00,,---,0.00,VWS V14.01,2013-02-19 09:16:00,
2013-02-19 04:18:00,21.9,7.8,30.06,WNW,301,0.0,0.0,54,0.00,,---,0.00,VWS V14.01,2013-02-19 09:18:00,
2013-02-19 04:19:00,21.8,7.7,30.06,WNW,301,0.0,0.0,54,0.00,,---,0.00,VWS V14.01,2013-02-19 09:19:00,
2013-02-19 04:21:00,21.8,8.1,30.06,WNW,301,0.0,0.0,55,0.00,,---,0.00,VWS V14.01,2013-02-19 09:21:00,
2013-02-19 04:23:00,21.8,8.1,30.06,WNW,301,0.0,0.0,55,0.00,,---,0.00,VWS V14.01,2013-02-19 09:23:00,
2013-02-19 04:25:00,21.8,8.5,30.06,WNW,301,0.0,0.0,56,0.00,,---,0.00,VWS V14.01,2013-02-19 09:25:00,
2013-02-19 04:26:00,21.8,8.5,30.06,WNW,301,0.0,0.0,56,0.00,,---,0.00,VWS V14.01,2013-02-19 09:26:00,
2013-02-19 04:28:00,21.8,8.5,30.06,WNW,301,0.0,0.0,56,0.00,,---,0.00,VWS V14.01,2013-02-19 09:28:00,
2013-02-19 04:30:00,21.8,8.5,30.06,WNW,301,0.0,0.0,56,0.00,,---,0.00,VWS V14.01,2013-02-19 09:30:00,
2013-02-19 04:31:00,21.8,8.5,30.06,WNW,301,0.0,0.0,56,0.00,,---,0.00,VWS V14.01,2013-02-19 09:31:00,
2013-02-19 04:33:00,21.9,8.6,30.06,WNW,301,0.0,0.0,56,0.00,,---,0.00,VWS V14.01,2013-02-19 09:33:00,
2013-02-19 04:35:00,21.9,8.6,30.06,WNW,301,0.0,0.0,56,0.00,,---,0.00,VWS V14.01,2013-02-19 09:35:00,
2013-02-19 04:36:00,21.9,8.6,30.06,WNW,301,0.0,0.0,56,0.00,,---,0.00,VWS V14.01,2013-02-19 09:36:00,
2013-02-19 04:38:00,21.9,9.0,30.06,WNW,301,0.0,0.0,57,0.00,,---,0.00,VWS V14.01,2013-02-19 09:38:00,
2013-02-19 04:40:00,22.1,9.6,30.06,WNW,301,0.0,0.0,58,0.00,,---,0.00,VWS V14.01,2013-02-19 09:40:00,
2013-02-19 04:41:00,22.1,9.6,30.06,WNW,301,0.0,0.0,58,0.00,,---,0.00,VWS V14.01,2013-02-19 09:41:00,
2013-02-19 04:44:00,22.1,9.2,30.06,WNW,301,0.0,0.0,57,0.00,,---,0.00,VWS V14.01,2013-02-19 09:44:00,
2013-02-19 04:45:00,22.1,9.2,30.06,WNW,301,0.0,0.0,57,0.00,,---,0.00,VWS V14.01,2013-02-19 09:45:00,
2013-02-19 04:46:00,21.9,9.0,30.06,WNW,301,0.0,0.0,57,0.00,,---,0.00,VWS V14.01,2013-02-19 09:46:00,
2013-02-19 04:47:00,21.9,9.0,30.06,WNW,301,0.0,0.0,57,0.00,,---,0.00,VWS V14.01,2013-02-19 09:47:00,
2013-02-19 04:49:00,21.9,9.0,30.06,WNW,301,0.0,0.0,57,0.00,,---,0.00,VWS V14.01,2013-02-19 09:49:00,
2013-02-19 04:50:00,22.1,9.6,30.06,WNW,301,0.0,0.0,58,0.00,,---,0.00,VWS V14.01,2013-02-19 09:50:00,
2013-02-19 04:51:00,22.1,9.6,30.06,WNW,301,0.0,0.0,58,0.00,,---,0.00,VWS V14.01,2013-02-19 09:51:00,
2013-02-19 04:52:00,22.1,9.6,30.06,WNW,301,0.0,0.0,58,0.00,,---,0.00,VWS V14.01,2013-02-19 09:52:00,
2013-02-19 04:54:00,22.1,9.6,30.06,WNW,301,0.0,0.0,58,0.00,,---,0.00,VWS V14.01,2013-02-19 09:54:00,
2013-02-19 04:55:00,21.9,9.4,30.06,WNW,301,0.0,0.0,58,0.00,,---,0.00,VWS V14.01,2013-02-19 09:55:00,
2013-02-19 04:56:00,21.9,9.4,30.06,WNW,301,0.0,0.0,58,0.00,,---,0.00,VWS V14.01,2013-02-19 09:56:00,
2013-02-19 04:57:00,21.9,9.4,30.06,WNW,301,0.0,0.0,58,0.00,,---,0.00,VWS V14.01,2013-02-19 09:57:00,
2013-02-19 04:59:00,21.8,8.9,30.06,WNW,301,0.0,0.0,57,0.00,,---,0.00,VWS V14.01,2013-02-19 09:59:00,
2013-02-19 05:00:00,21.8,8.9,30.06,WNW,301,0.0,0.0,57,0.00,,---,0.00,VWS V14.01,2013-02-19 10:00:00,
2013-02-19 05:01:00,21.8,8.9,30.06,WNW,301,0.0,0.0,57,0.00,,---,0.00,VWS V14.01,2013-02-19 10:01:00,
2013-02-19 05:02:00,21.6,8.7,30.06,WNW,301,0.0,0.0,57,0.00,,---,0.00,VWS V14.01,2013-02-19 10:02:00,
2013-02-19 05:04:00,21.6,8.7,30.06,WNW,301,0.0,0.0,57,0.00,,---,0.00,VWS V14.01,2013-02-19 10:04:00,
2013-02-19 05:06:00,21.4,8.6,30.06,WNW,301,0.0,0.0,57,0.00,,---,0.00,VWS V14.01,2013-02-19 10:06:00,
2013-02-19 05:07:00,21.4,8.9,30.06,WNW,301,0.0,0.0,58,0.00,,---,0.00,VWS V14.01,2013-02-19 10:07:00,
2013-02-19 05:09:00,21.3,8.8,30.06,WNW,301,0.0,0.0,58,0.00,,---,0.00,VWS V14.01,2013-02-19 10:09:00,
2013-02-19 05:11:00,21.3,8.8,30.06,WNW,301,0.0,0.0,58,0.00,,---,0.00,VWS V14.01,2013-02-19 10:11:00,
2013-02-19 05:12:00,21.1,9.0,30.06,WNW,301,0.0,0.0,59,0.00,,---,0.00,VWS V14.01,2013-02-19 10:12:00,
2013-02-19 05:14:00,21.1,9.0,30.06,WNW,301,0.0,0.0,59,0.00,,---,0.00,VWS V14.01,2013-02-19 10:14:00,
2013-02-19 05:16:00,21.0,8.9,30.05,WNW,301,0.0,0.0,59,0.00,,---,0.00,VWS V14.01,2013-02-19 10:16:00,
2013-02-19 05:18:00,21.0,8.9,30.05,WNW,301,0.0,0.0,59,0.00,,---,0.00,VWS V14.01,2013-02-19 10:18:00,
2013-02-19 05:19:00,20.8,8.8,30.05,WNW,301,0.0,0.0,59,0.00,,---,0.00,VWS V14.01,2013-02-19 10:19:00,
2013-02-19 05:21:00,20.8,8.8,30.05,WNW,301,0.0,0.0,59,0.00,,---,0.00,VWS V14.01,2013-02-19 10:21:00,
2013-02-19 05:23:00,20.6,8.6,30.05,WNW,301,0.0,0.0,59,0.00,,---,0.00,VWS V14.01,2013-02-19 10:23:00,
2013-02-19 05:24:00,20.6,8.6,30.05,WNW,301,0.0,0.0,59,0.00,,---,0.00,VWS V14.01,2013-02-19 10:24:00,
2013-02-19 05:26:00,20.5,8.5,30.05,WNW,301,0.0,0.0,59,0.00,,---,0.00,VWS V14.01,2013-02-19 10:26:00,
2013-02-19 05:28:00,20.5,8.8,30.05,WNW,301,0.0,0.0,60,0.00,,---,0.00,VWS V14.01,2013-02-19 10:28:00,
2013-02-19 05:29:00,20.3,8.6,30.05,WNW,301,0.0,0.0,60,0.00,,---,0.00,VWS V14.01,2013-02-19 10:29:00,
2013-02-19 05:31:00,20.3,9.0,30.05,WNW,301,0.0,0.0,61,0.00,,---,0.00,VWS V14.01,2013-02-19 10:31:00,
2013-02-19 05:33:00,20.3,9.0,30.05,WNW,301,0.0,0.0,61,0.00,,---,0.00,VWS V14.01,2013-02-19 10:33:00,
2013-02-19 05:35:00,20.5,9.6,30.05,WNW,301,0.0,0.0,62,0.00,,---,0.00,VWS V14.01,2013-02-19 10:35:00,
2013-02-19 05:36:00,20.5,9.6,30.05,WNW,301,0.0,0.0,62,0.00,,---,0.00,VWS V14.01,2013-02-19 10:36:00,
2013-02-19 05:37:00,20.5,9.6,30.05,WNW,301,0.0,0.0,62,0.00,,---,0.00,VWS V14.01,2013-02-19 10:37:00,
2013-02-19 05:38:00,20.6,10.0,30.05,WNW,301,0.0,0.0,63,0.00,,---,0.00,VWS V14.01,2013-02-19 10:38:00,
2013-02-19 05:40:00,20.6,10.0,30.05,WNW,301,0.0,0.0,63,0.00,,---,0.00,VWS V14.01,2013-02-19 10:40:00,
2013-02-19 05:42:00,20.8,10.6,30.05,WNW,301,0.0,0.0,64,0.00,,---,0.00,VWS V14.01,2013-02-19 10:42:00,
2013-02-19 05:43:00,21.0,10.8,30.05,WNW,301,0.0,0.0,64,0.00,,---,0.00,VWS V14.01,2013-02-19 10:43:00,
2013-02-19 05:45:00,21.0,10.8,30.04,WNW,301,0.0,0.0,64,0.00,,---,0.00,VWS V14.01,2013-02-19 10:45:00,
2013-02-19 05:47:00,21.0,10.8,30.04,WNW,301,0.0,0.0,64,0.00,,---,0.00,VWS V14.01,2013-02-19 10:47:00,
2013-02-19 05:48:00,21.0,10.8,30.04,WNW,301,0.0,0.0,64,0.00,,---,0.00,VWS V14.01,2013-02-19 10:48:00,
2013-02-19 05:50:00,21.0,10.8,30.04,WNW,301,0.0,0.0,64,0.00,,---,0.00,VWS V14.01,2013-02-19 10:50:00,
2013-02-19 05:52:00,21.0,10.8,30.04,WNW,301,0.0,0.0,64,0.00,,---,0.00,VWS V14.01,2013-02-19 10:52:00,
2013-02-19 05:53:00,21.0,10.8,30.04,WNW,301,0.0,0.0,64,0.00,,---,0.00,VWS V14.01,2013-02-19 10:53:00,
2013-02-19 05:55:00,21.0,10.8,30.04,WNW,301,0.0,0.0,64,0.00,,---,0.00,VWS V14.01,2013-02-19 10:55:00,
2013-02-19 05:57:00,21.0,10.8,30.04,WNW,301,0.0,0.0,64,0.00,,---,0.00,VWS V14.01,2013-02-19 10:57:00,
2013-02-19 05:58:00,21.0,10.8,30.04,WNW,301,0.0,0.0,64,0.00,,---,0.00,VWS V14.01,2013-02-19 10:58:00,
2013-02-19 06:00:00,20.8,10.6,30.04,WNW,301,0.0,0.0,64,0.00,,---,0.00,VWS V14.01,2013-02-19 11:00:00,
2013-02-19 06:02:00,20.8,10.6,30.04,WNW,301,0.0,0.0,64,0.00,,---,0.00,VWS V14.01,2013-02-19 11:02:00,
2013-02-19 06:03:00,20.6,10.4,30.04,WNW,301,0.0,0.0,64,0.00,,---,0.00,VWS V14.01,2013-02-19 11:03:00,
2013-02-19 06:05:00,20.6,10.4,30.04,WNW,301,0.0,0.0,64,0.00,,---,0.00,VWS V14.01,2013-02-19 11:05:00,
2013-02-19 06:07:00,20.5,10.3,30.04,WNW,301,0.0,0.0,64,0.00,,---,0.00,VWS V14.01,2013-02-19 11:07:00,
2013-02-19 06:08:00,20.5,10.3,30.04,WNW,301,0.0,0.0,64,0.00,,---,0.00,VWS V14.01,2013-02-19 11:08:00,
2013-02-19 06:10:00,20.5,10.3,30.04,WNW,301,0.0,0.0,64,0.00,,---,0.00,VWS V14.01,2013-02-19 11:10:00,
2013-02-19 06:12:00,20.5,10.3,30.04,WNW,301,0.0,0.0,64,0.00,,---,0.00,VWS V14.01,2013-02-19 11:12:00,
2013-02-19 06:14:00,20.3,10.1,30.04,WNW,301,0.0,0.0,64,0.00,,---,0.00,VWS V14.01,2013-02-19 11:14:00,
2013-02-19 06:15:00,20.3,10.1,30.03,WNW,301,0.0,0.0,64,0.00,,---,0.00,VWS V14.01,2013-02-19 11:15:00,
2013-02-19 06:17:00,20.2,10.0,30.03,WNW,301,0.0,0.0,64,0.00,,---,0.00,VWS V14.01,2013-02-19 11:17:00,
2013-02-19 06:19:00,20.2,10.0,30.03,WNW,301,0.0,0.0,64,0.00,,---,0.00,VWS V14.01,2013-02-19 11:19:00,
2013-02-19 06:20:00,20.0,10.1,30.03,WNW,301,0.0,0.0,65,0.00,,---,0.00,VWS V14.01,2013-02-19 11:20:00,
2013-02-19 06:22:00,20.0,10.1,30.03,WNW,301,0.0,0.0,65,0.00,,---,0.00,VWS V14.01,2013-02-19 11:22:00,
2013-02-19 06:24:00,20.0,10.1,30.03,WNW,301,0.0,0.0,65,0.00,,---,0.00,VWS V14.01,2013-02-19 11:24:00,
2013-02-19 06:25:00,19.9,10.1,30.03,WNW,301,0.0,0.0,65,0.00,,---,0.00,VWS V14.01,2013-02-19 11:25:00,
2013-02-19 06:27:00,19.9,10.4,30.03,WNW,301,0.0,0.0,66,0.00,,---,0.00,VWS V14.01,2013-02-19 11:27:00,
2013-02-19 06:28:00,19.9,10.4,30.03,WNW,301,0.0,0.0,66,0.00,,---,0.00,VWS V14.01,2013-02-19 11:28:00,
2013-02-19 06:29:00,19.9,10.4,30.03,WNW,301,0.0,0.0,66,0.00,,---,0.00,VWS V14.01,2013-02-19 11:29:00,
2013-02-19 06:30:00,19.7,10.2,30.03,WNW,301,0.0,0.0,66,0.00,,---,0.00,VWS V14.01,2013-02-19 11:30:00,
2013-02-19 06:32:00,19.7,10.2,30.03,WNW,301,0.0,0.0,66,0.00,,---,0.00,VWS V14.01,2013-02-19 11:32:00,
2013-02-19 06:33:00,19.7,10.2,30.03,WNW,301,0.0,0.0,66,0.00,,---,0.00,VWS V14.01,2013-02-19 11:33:00,
2013-02-19 06:34:00,19.7,10.5,30.03,WNW,301,0.0,0.0,67,0.00,,---,0.00,VWS V14.01,2013-02-19 11:34:00,
2013-02-19 06:35:00,19.7,10.5,30.03,WNW,301,0.0,0.0,67,0.00,,---,0.00,VWS V14.01,2013-02-19 11:35:00,
2013-02-19 06:37:00,19.7,11.2,30.03,WNW,301,0.0,0.0,69,0.00,,---,0.00,VWS V14.01,2013-02-19 11:37:00,
2013-02-19 06:38:00,19.7,11.2,30.03,WNW,301,0.0,0.0,69,0.00,,---,0.00,VWS V14.01,2013-02-19 11:38:00,
2013-02-19 06:39:00,19.7,11.5,30.03,WNW,301,0.0,0.0,70,0.00,,---,0.00,VWS V14.01,2013-02-19 11:39:00,
2013-02-19 06:40:00,19.7,11.8,30.03,WNW,301,0.0,0.0,71,0.00,,---,0.00,VWS V14.01,2013-02-19 11:40:00,
2013-02-19 06:43:00,19.7,11.8,30.03,WNW,301,0.0,0.0,71,0.00,,---,0.00,VWS V14.01,2013-02-19 11:43:00,
2013-02-19 06:44:00,19.7,11.8,30.03,WNW,301,0.0,0.0,71,0.00,,---,0.00,VWS V14.01,2013-02-19 11:44:00,
2013-02-19 06:45:00,19.7,11.8,30.02,WNW,301,0.0,0.0,71,0.00,,---,0.00,VWS V14.01,2013-02-19 11:45:00,
2013-02-19 06:48:00,19.7,11.8,30.02,WNW,301,0.0,0.0,71,0.00,,---,0.00,VWS V14.01,2013-02-19 11:48:00,
2013-02-19 06:49:00,19.7,11.8,30.02,WNW,301,0.0,0.0,71,0.00,,---,0.00,VWS V14.01,2013-02-19 11:49:00,
2013-02-19 06:51:00,19.5,11.6,30.02,WNW,301,0.0,0.0,71,0.00,,---,0.00,VWS V14.01,2013-02-19 11:51:00,
2013-02-19 06:53:00,19.5,11.6,30.02,WNW,301,0.0,0.0,71,0.00,,---,0.00,VWS V14.01,2013-02-19 11:53:00,
2013-02-19 06:54:00,19.5,11.6,30.02,WNW,301,0.0,0.0,71,0.00,,---,0.00,VWS V14.01,2013-02-19 11:54:00,
2013-02-19 06:56:00,19.5,11.6,30.02,WNW,301,0.0,0.0,71,0.00,,---,0.00,VWS V14.01,2013-02-19 11:56:00,
2013-02-19 06:58:00,19.5,11.6,30.02,WNW,301,0.0,0.0,71,0.00,,---,0.00,VWS V14.01,2013-02-19 11:58:00,
2013-02-19 06:59:00,19.5,11.6,30.02,WNW,301,0.0,0.0,71,0.00,,---,0.00,VWS V14.01,2013-02-19 11:59:00,
2013-02-19 07:01:00,19.5,12.0,30.01,WNW,301,0.0,0.0,72,0.00,,---,0.00,VWS V14.01,2013-02-19 12:01:00,
2013-02-19 07:03:00,19.5,12.0,30.01,WNW,301,0.0,0.0,72,0.00,,---,0.00,VWS V14.01,2013-02-19 12:03:00,
2013-02-19 07:05:00,19.5,12.0,30.01,WNW,301,0.0,0.0,72,0.00,,---,0.00,VWS V14.01,2013-02-19 12:05:00,
2013-02-19 07:06:00,19.5,12.0,30.01,WNW,301,0.0,0.0,72,0.00,,---,0.00,VWS V14.01,2013-02-19 12:06:00,
2013-02-19 07:08:00,19.7,12.8,30.01,WNW,301,0.0,0.0,74,0.00,,---,0.00,VWS V14.01,2013-02-19 12:08:00,
2013-02-19 07:10:00,19.7,12.8,30.01,WNW,301,0.0,0.0,74,0.00,,---,0.00,VWS V14.01,2013-02-19 12:10:00,
2013-02-19 07:11:00,19.7,12.8,30.01,WNW,301,0.0,0.0,74,0.00,,---,0.00,VWS V14.01,2013-02-19 12:11:00,
2013-02-19 07:13:00,19.7,12.8,30.01,WNW,301,0.0,0.0,74,0.00,,---,0.00,VWS V14.01,2013-02-19 12:13:00,
2013-02-19 07:15:00,19.7,12.8,30.01,WNW,301,0.0,0.0,74,0.00,,---,0.00,VWS V14.01,2013-02-19 12:15:00,
2013-02-19 07:16:00,19.7,12.8,30.01,WNW,301,0.0,0.0,74,0.00,,---,0.00,VWS V14.01,2013-02-19 12:16:00,
2013-02-19 07:18:00,19.9,13.0,30.01,WNW,301,0.0,0.0,74,0.00,,---,0.00,VWS V14.01,2013-02-19 12:18:00,
2013-02-19 07:19:00,19.9,13.0,30.01,WNW,301,0.0,0.0,74,0.00,,---,0.00,VWS V14.01,2013-02-19 12:19:00,
2013-02-19 07:20:00,19.9,13.0,30.01,WNW,301,0.0,0.0,74,0.00,,---,0.00,VWS V14.01,2013-02-19 12:20:00,
2013-02-19 07:21:00,20.0,13.4,30.01,WNW,301,0.0,0.0,75,0.00,,---,0.00,VWS V14.01,2013-02-19 12:21:00,
2013-02-19 07:24:00,20.2,13.9,30.01,WNW,301,0.0,0.0,76,0.00,,---,0.00,VWS V14.01,2013-02-19 12:24:00,
2013-02-19 07:25:00,20.2,13.9,30.01,WNW,301,0.0,0.0,76,0.00,,---,0.00,VWS V14.01,2013-02-19 12:25:00,
2013-02-19 07:26:00,20.3,14.0,30.01,WNW,301,0.0,0.0,76,0.00,,---,0.00,VWS V14.01,2013-02-19 12:26:00,
2013-02-19 07:29:00,20.5,14.1,30.01,WNW,301,0.0,0.0,76,0.00,,---,0.00,VWS V14.01,2013-02-19 12:29:00,
2013-02-19 07:30:00,20.6,14.6,30.01,WNW,301,0.0,0.0,77,0.00,,---,0.00,VWS V14.01,2013-02-19 12:30:00,
2013-02-19 07:31:00,21.0,14.9,30.01,WNW,301,0.0,0.0,77,0.00,,---,0.00,VWS V14.01,2013-02-19 12:31:00,
2013-02-19 07:34:00,21.3,14.9,30.01,WNW,301,0.0,0.0,76,0.00,,---,0.00,VWS V14.01,2013-02-19 12:34:00,
2013-02-19 07:35:00,21.3,14.9,30.01,WNW,301,0.0,0.0,76,0.00,,---,0.00,VWS V14.01,2013-02-19 12:35:00,
2013-02-19 07:36:00,21.6,15.2,30.01,WNW,301,0.0,0.0,76,0.00,,---,0.00,VWS V14.01,2013-02-19 12:36:00,
2013-02-19 07:39:00,21.9,15.2,30.01,WNW,301,0.0,0.0,75,0.00,,---,0.00,VWS V14.01,2013-02-19 12:39:00,
2013-02-19 07:40:00,21.9,15.2,30.01,WNW,301,0.0,0.0,75,0.00,,---,0.00,VWS V14.01,2013-02-19 12:40:00,
2013-02-19 07:41:00,22.1,15.4,30.01,WNW,301,0.0,0.0,75,0.00,,---,0.00,VWS V14.01,2013-02-19 12:41:00,
2013-02-19 07:44:00,22.5,15.2,30.01,WNW,301,0.0,0.0,73,0.00,,---,0.00,VWS V14.01,2013-02-19 12:44:00,
2013-02-19 07:45:00,22.5,15.2,30.01,WNW,301,0.0,0.0,73,0.00,,---,0.00,VWS V14.01,2013-02-19 12:45:00,
2013-02-19 07:46:00,22.7,15.4,30.01,WNW,301,0.0,0.0,73,0.00,,---,0.00,VWS V14.01,2013-02-19 12:46:00,
2013-02-19 07:49:00,23.0,14.7,30.01,WNW,301,0.0,0.0,70,0.00,,---,0.00,VWS V14.01,2013-02-19 12:49:00,
2013-02-19 07:50:00,23.2,14.9,30.01,WNW,301,0.0,0.0,70,0.00,,---,0.00,VWS V14.01,2013-02-19 12:50:00,
2013-02-19 07:51:00,23.2,14.6,30.01,WNW,301,0.0,0.0,69,0.00,,---,0.00,VWS V14.01,2013-02-19 12:51:00,
2013-02-19 07:54:00,23.6,14.3,30.01,WNW,301,0.0,0.0,67,0.00,,---,0.00,VWS V14.01,2013-02-19 12:54:00,
2013-02-19 07:55:00,23.8,14.1,30.01,WNW,301,0.0,0.0,66,0.00,,---,0.00,VWS V14.01,2013-02-19 12:55:00,
2013-02-19 07:56:00,23.8,13.8,30.01,WNW,301,0.0,0.0,65,0.00,,---,0.00,VWS V14.01,2013-02-19 12:56:00,
2013-02-19 07:59:00,24.2,13.8,30.01,WNW,301,0.0,0.0,64,0.00,,---,0.00,VWS V14.01,2013-02-19 12:59:00,
2013-02-19 08:00:00,24.4,13.6,30.01,WNW,301,0.0,0.0,63,0.00,,---,0.00,VWS V14.01,2013-02-19 13:00:00,
2013-02-19 08:01:00,24.5,13.7,30.01,WNW,301,0.0,0.0,63,0.00,,---,0.00,VWS V14.01,2013-02-19 13:01:00,
2013-02-19 08:04:00,25.0,13.5,30.01,WNW,301,0.0,0.0,61,0.00,,---,0.00,VWS V14.01,2013-02-19 13:04:00,
2013-02-19 08:06:00,25.1,13.2,30.01,WNW,301,0.0,0.0,60,0.00,,---,0.00,VWS V14.01,2013-02-19 13:06:00,
2013-02-19 08:10:00,25.7,13.0,30.01,WNW,301,0.0,0.0,58,0.00,,---,0.00,VWS V14.01,2013-02-19 13:10:00,
2013-02-19 08:11:00,25.8,12.7,30.01,WNW,301,0.0,0.0,57,0.00,,---,0.00,VWS V14.01,2013-02-19 13:11:00,
2013-02-19 08:12:00,26.0,12.9,30.01,WNW,301,0.0,0.0,57,0.00,,---,0.00,VWS V14.01,2013-02-19 13:12:00,
2013-02-19 08:15:00,26.4,12.4,30.01,WNW,301,0.0,0.0,55,0.00,,---,0.00,VWS V14.01,2013-02-19 13:15:00,
2013-02-19 08:16:00,26.6,12.6,30.01,WNW,301,0.0,0.0,55,0.00,,---,0.00,VWS V14.01,2013-02-19 13:16:00,
2013-02-19 08:17:00,26.7,12.3,30.01,WNW,301,0.0,0.0,54,0.00,,---,0.00,VWS V14.01,2013-02-19 13:17:00,
2013-02-19 08:20:00,27.2,12.4,30.01,WNW,301,0.0,0.0,53,0.00,,---,0.00,VWS V14.01,2013-02-19 13:20:00,
2013-02-19 08:21:00,27.5,12.6,30.01,WNW,301,0.0,0.0,53,0.00,,---,0.00,VWS V14.01,2013-02-19 13:21:00,
2013-02-19 08:22:00,27.6,12.3,30.01,WNW,301,0.0,0.0,52,0.00,,---,0.00,VWS V14.01,2013-02-19 13:22:00,
2013-02-19 08:25:00,28.2,12.0,30.01,WNW,301,0.0,0.0,50,0.00,,---,0.00,VWS V14.01,2013-02-19 13:25:00,
2013-02-19 08:26:00,28.4,11.7,30.01,WNW,301,0.0,0.0,49,0.00,,---,0.00,VWS V14.01,2013-02-19 13:26:00,
2013-02-19 08:27:00,28.5,11.8,30.01,WNW,301,0.0,0.0,49,0.00,,---,0.00,VWS V14.01,2013-02-19 13:27:00,
2013-02-19 08:30:00,29.1,11.4,30.00,WNW,301,0.0,0.0,47,0.00,,---,0.00,VWS V14.01,2013-02-19 13:30:00,
2013-02-19 08:31:00,29.3,11.6,30.00,WNW,301,0.0,0.0,47,0.00,,---,0.00,VWS V14.01,2013-02-19 13:31:00,
2013-02-19 08:32:00,29.4,11.7,30.00,WNW,301,0.0,0.0,47,0.00,,---,0.00,VWS V14.01,2013-02-19 13:32:00,
2013-02-19 08:35:00,30.0,11.7,30.00,WNW,301,0.0,0.0,46,0.00,,---,0.00,VWS V14.01,2013-02-19 13:35:00,
2013-02-19 08:36:00,30.3,12.0,30.00,WNW,301,0.0,0.0,46,0.00,,---,0.00,VWS V14.01,2013-02-19 13:36:00,
2013-02-19 08:37:00,30.4,12.1,30.00,WNW,301,0.0,0.0,46,0.00,,---,0.00,VWS V14.01,2013-02-19 13:37:00,
2013-02-19 08:40:00,31.2,11.3,30.00,WNW,301,0.0,0.0,43,0.00,,---,0.00,VWS V14.01,2013-02-19 13:40:00,
2013-02-19 08:42:00,31.5,12.1,30.00,WNW,301,0.0,0.0,44,0.00,,---,0.00,VWS V14.01,2013-02-19 13:42:00,
2013-02-19 08:45:00,32.4,12.9,30.00,WNW,301,0.0,0.0,44,0.00,,---,0.00,VWS V14.01,2013-02-19 13:45:00,
2013-02-19 08:47:00,32.8,12.8,30.00,WNW,301,0.0,0.0,43,0.00,,---,0.00,VWS V14.01,2013-02-19 13:47:00,
2013-02-19 08:50:00,33.8,13.7,30.00,WNW,301,0.0,0.0,43,0.00,,---,0.00,VWS V14.01,2013-02-19 13:50:00,
2013-02-19 08:52:00,34.4,13.1,30.00,WNW,301,0.0,0.0,41,0.00,,---,0.00,VWS V14.01,2013-02-19 13:52:00,
2013-02-19 08:55:00,35.8,15.5,30.00,WSW,240,0.0,6.0,43,0.00,,---,0.00,VWS V14.01,2013-02-19 13:55:00,
2013-02-19 08:57:00,36.3,16.0,30.00,WSW,240,0.0,6.0,43,0.00,,---,0.00,VWS V14.01,2013-02-19 13:57:00,
2013-02-19 09:00:00,37.8,18.9,29.99,SSW,198,0.0,6.0,46,0.00,,---,0.00,VWS V14.01,2013-02-19 14:00:00,
2013-02-19 09:02:00,38.3,19.9,29.99,SW,223,4.0,7.0,47,0.00,,---,0.00,VWS V14.01,2013-02-19 14:02:00,
2013-02-19 09:05:00,39.2,20.2,29.99,SSW,192,0.0,7.0,46,0.00,,---,0.00,VWS V14.01,2013-02-19 14:05:00,
2013-02-19 09:07:00,39.6,20.5,29.99,WSW,243,5.0,7.0,46,0.00,,---,0.00,VWS V14.01,2013-02-19 14:07:00,
2013-02-19 09:10:00,40.3,21.2,29.99,South,188,1.0,7.0,46,0.00,,---,0.00,VWS V14.01,2013-02-19 14:10:00,
2013-02-19 09:12:00,40.5,21.4,29.99,West,263,2.0,7.0,46,0.00,,---,0.00,VWS V14.01,2013-02-19 14:12:00,
2013-02-19 09:15:00,40.9,21.7,29.99,SW,233,7.0,7.0,46,0.00,,---,0.00,VWS V14.01,2013-02-19 14:15:00,
2013-02-19 09:17:00,41.2,22.0,29.99,SSW,199,0.0,7.0,46,0.00,,---,0.00,VWS V14.01,2013-02-19 14:17:00,
2013-02-19 09:20:00,41.5,22.3,29.99,SSW,202,5.0,7.0,46,0.00,,---,0.00,VWS V14.01,2013-02-19 14:20:00,
2013-02-19 09:22:00,41.5,22.3,29.99,WSW,247,8.0,10.0,46,0.00,,---,0.00,VWS V14.01,2013-02-19 14:22:00,
2013-02-19 09:23:00,41.5,22.3,29.99,SSW,210,6.0,10.0,46,0.00,,---,0.00,VWS V14.01,2013-02-19 14:23:00,
2013-02-19 09:26:00,41.6,22.4,29.99,WSW,248,0.0,10.0,46,0.00,,---,0.00,VWS V14.01,2013-02-19 14:26:00,
2013-02-19 09:27:00,41.8,22.5,29.99,WSW,243,7.0,10.0,46,0.00,,---,0.00,VWS V14.01,2013-02-19 14:27:00,
2013-02-19 09:28:00,41.8,22.5,29.99,SSW,209,7.0,10.0,46,0.00,,---,0.00,VWS V14.01,2013-02-19 14:28:00,
2013-02-19 09:31:00,41.9,22.1,29.98,South,179,1.0,1.0,45,0.00,,---,0.00,VWS V14.01,2013-02-19 14:31:00,
2013-02-19 09:32:00,42.1,22.3,29.98,SW,220,3.0,7.0,45,0.00,,---,0.00,VWS V14.01,2013-02-19 14:32:00,
2013-02-19 09:33:00,42.2,22.4,29.98,SSW,210,2.0,7.0,45,0.00,,---,0.00,VWS V14.01,2013-02-19 14:33:00,
2013-02-19 09:36:00,42.3,22.5,29.98,South,181,1.0,7.0,45,0.00,,---,0.00,VWS V14.01,2013-02-19 14:36:00,
2013-02-19 09:37:00,42.3,22.5,29.98,SSW,203,6.0,10.0,45,0.00,,---,0.00,VWS V14.01,2013-02-19 14:37:00,
2013-02-19 09:38:00,42.3,22.5,29.98,SSW,210,5.0,10.0,45,0.00,,---,0.00,VWS V14.01,2013-02-19 14:38:00,
2013-02-19 09:41:00,42.2,22.4,29.98,SSW,209,2.0,10.0,45,0.00,,---,0.00,VWS V14.01,2013-02-19 14:41:00,
2013-02-19 09:42:00,42.3,22.5,29.98,SSE,164,2.0,10.0,45,0.00,,---,0.00,VWS V14.01,2013-02-19 14:42:00,
2013-02-19 09:43:00,42.3,22.5,29.98,SSE,167,1.0,10.0,45,0.00,,---,0.00,VWS V14.01,2013-02-19 14:43:00,
2013-02-19 09:46:00,42.3,22.5,29.98,SW,226,5.0,5.0,45,0.00,,---,0.00,VWS V14.01,2013-02-19 14:46:00,
2013-02-19 09:47:00,42.3,23.0,29.98,SSW,209,6.0,6.0,46,0.00,,---,0.00,VWS V14.01,2013-02-19 14:47:00,
2013-02-19 09:48:00,42.3,23.0,29.98,SSW,212,4.0,7.0,46,0.00,,---,0.00,VWS V14.01,2013-02-19 14:48:00,
2013-02-19 09:49:00,42.3,22.5,29.98,WSW,243,3.0,7.0,45,0.00,,---,0.00,VWS V14.01,2013-02-19 14:49:00,
2013-02-19 09:51:00,42.3,23.0,29.98,SW,220,3.0,7.0,46,0.00,,---,0.00,VWS V14.01,2013-02-19 14:51:00,
2013-02-19 09:52:00,42.5,23.2,29.98,SW,220,2.0,7.0,46,0.00,,---,0.00,VWS V14.01,2013-02-19 14:52:00,
2013-02-19 09:53:00,42.5,23.2,29.98,SW,220,2.0,7.0,46,0.00,,---,0.00,VWS V14.01,2013-02-19 14:53:00,
2013-02-19 09:54:00,42.6,22.8,29.98,SSW,196,2.0,7.0,45,0.00,,---,0.00,VWS V14.01,2013-02-19 14:54:00,
2013-02-19 09:56:00,42.6,22.8,29.98,South,172,5.0,8.0,45,0.00,,---,0.00,VWS V14.01,2013-02-19 14:56:00,
2013-02-19 09:57:00,42.6,22.8,29.98,SSW,196,2.0,8.0,45,0.00,,---,0.00,VWS V14.01,2013-02-19 14:57:00,
2013-02-19 09:58:00,42.6,22.8,29.98,SSW,202,5.0,8.0,45,0.00,,---,0.00,VWS V14.01,2013-02-19 14:58:00,
2013-02-19 09:59:00,42.6,22.8,29.98,WSW,251,5.0,8.0,45,0.00,,---,0.00,VWS V14.01,2013-02-19 14:59:00,
2013-02-19 10:01:00,42.8,23.0,29.97,SSW,208,7.0,7.0,45,0.00,,---,0.00,VWS V14.01,2013-02-19 15:01:00,
2013-02-19 10:02:00,42.8,22.4,29.97,SW,229,2.0,7.0,44,0.00,,---,0.00,VWS V14.01,2013-02-19 15:02:00,
2013-02-19 10:03:00,42.8,22.4,29.97,West,268,4.0,7.0,44,0.00,,---,0.00,VWS V14.01,2013-02-19 15:03:00,
2013-02-19 10:04:00,42.8,22.4,29.97,SSW,212,5.0,7.0,44,0.00,,---,0.00,VWS V14.01,2013-02-19 15:04:00,
2013-02-19 10:06:00,42.8,22.4,29.97,SSW,200,0.0,10.0,44,0.00,,---,0.00,VWS V14.01,2013-02-19 15:06:00,
2013-02-19 10:07:00,42.8,22.4,29.97,WSW,243,5.0,10.0,44,0.00,,---,0.00,VWS V14.01,2013-02-19 15:07:00,
2013-02-19 10:08:00,42.8,22.4,29.97,WSW,243,1.0,10.0,44,0.00,,---,0.00,VWS V14.01,2013-02-19 15:08:00,
2013-02-19 10:09:00,42.8,22.4,29.97,WSW,243,3.0,10.0,44,0.00,,---,0.00,VWS V14.01,2013-02-19 15:09:00,
2013-02-19 10:11:00,42.9,22.5,29.97,SW,216,0.0,10.0,44,0.00,,---,0.00,VWS V14.01,2013-02-19 15:11:00,
2013-02-19 10:12:00,43.1,22.7,29.97,SW,216,1.0,10.0,44,0.00,,---,0.00,VWS V14.01,2013-02-19 15:12:00,
2013-02-19 10:14:00,43.1,22.7,29.97,SW,215,3.0,10.0,44,0.00,,---,0.00,VWS V14.01,2013-02-19 15:14:00,
2013-02-19 10:17:00,43.2,22.2,29.97,SSW,206,0.0,6.0,43,0.00,,---,0.00,VWS V14.01,2013-02-19 15:17:00,
2013-02-19 10:18:00,43.3,22.3,29.97,SW,217,6.0,6.0,43,0.00,,---,0.00,VWS V14.01,2013-02-19 15:18:00,
2013-02-19 10:19:00,43.3,22.3,29.97,SSW,212,0.0,6.0,43,0.00,,---,0.00,VWS V14.01,2013-02-19 15:19:00,
2013-02-19 10:22:00,43.5,22.0,29.97,SW,233,1.0,7.0,42,0.00,,---,0.00,VWS V14.01,2013-02-19 15:22:00,
2013-02-19 10:23:00,43.5,22.0,29.97,SW,224,3.0,7.0,42,0.00,,---,0.00,VWS V14.01,2013-02-19 15:23:00,
2013-02-19 10:24:00,43.6,22.0,29.97,SW,224,2.0,7.0,42,0.00,,---,0.00,VWS V14.01,2013-02-19 15:24:00,
2013-02-19 10:27:00,43.8,21.6,29.97,WSW,251,7.0,10.0,41,0.00,,---,0.00,VWS V14.01,2013-02-19 15:27:00,
2013-02-19 10:29:00,43.8,21.1,29.97,SW,236,5.0,10.0,40,0.00,,---,0.00,VWS V14.01,2013-02-19 15:29:00,
2013-02-19 10:32:00,43.8,21.1,29.96,WSW,239,1.0,16.0,40,0.00,,---,0.00,VWS V14.01,2013-02-19 15:32:00,
2013-02-19 10:34:00,43.9,21.2,29.96,West,264,1.0,16.0,40,0.00,,---,0.00,VWS V14.01,2013-02-19 15:34:00,
2013-02-19 10:37:00,43.9,20.6,29.96,SSW,196,3.0,16.0,39,0.00,,---,0.00,VWS V14.01,2013-02-19 15:37:00,
2013-02-19 10:39:00,44.1,20.7,29.96,SW,226,5.0,16.0,39,0.00,,---,0.00,VWS V14.01,2013-02-19 15:39:00,
2013-02-19 10:42:00,44.2,20.2,29.96,SSW,209,3.0,16.0,38,0.00,,---,0.00,VWS V14.01,2013-02-19 15:42:00,
2013-02-19 10:44:00,44.2,20.2,29.96,SW,232,0.0,16.0,38,0.00,,---,0.00,VWS V14.01,2013-02-19 15:44:00,
2013-02-19 10:47:00,44.3,20.9,29.96,SSW,202,2.0,10.0,39,0.00,,---,0.00,VWS V14.01,2013-02-19 15:47:00,
2013-02-19 10:49:00,44.3,20.3,29.96,WSW,237,7.0,10.0,38,0.00,,---,0.00,VWS V14.01,2013-02-19 15:49:00,
2013-02-19 10:53:00,44.5,20.5,29.96,SW,222,6.0,10.0,38,0.00,,---,0.00,VWS V14.01,2013-02-19 15:53:00,
2013-02-19 10:54:00,44.5,20.5,29.96,West,260,9.0,11.0,38,0.00,,---,0.00,VWS V14.01,2013-02-19 15:54:00,
2013-02-19 10:55:00,44.3,20.3,29.96,SW,226,7.0,11.0,38,0.00,,---,0.00,VWS V14.01,2013-02-19 15:55:00,
2013-02-19 10:58:00,44.3,20.3,29.96,SW,215,11.0,11.0,38,0.00,,---,0.00,VWS V14.01,2013-02-19 15:58:00,
2013-02-19 10:59:00,44.3,19.7,29.96,SW,236,5.0,12.0,37,0.00,,---,0.00,VWS V14.01,2013-02-19 15:59:00,
2013-02-19 11:00:00,44.3,19.7,29.96,SW,236,5.0,12.0,37,0.00,,---,0.00,VWS V14.01,2013-02-19 16:00:00,
2013-02-19 11:03:00,44.5,19.9,29.96,SW,233,10.0,10.0,37,0.00,,---,0.00,VWS V14.01,2013-02-19 16:03:00,
2013-02-19 11:05:00,44.6,20.0,29.96,SW,227,9.0,10.0,37,0.00,,---,0.00,VWS V14.01,2013-02-19 16:05:00,
2013-02-19 11:08:00,44.8,19.5,29.96,South,175,6.0,10.0,36,0.00,,---,0.00,VWS V14.01,2013-02-19 16:08:00,
2013-02-19 11:10:00,44.8,19.5,29.96,SSW,210,6.0,10.0,36,0.00,,---,0.00,VWS V14.01,2013-02-19 16:10:00,
2013-02-19 11:13:00,44.8,20.1,29.96,SW,215,6.0,10.0,37,0.00,,---,0.00,VWS V14.01,2013-02-19 16:13:00,
2013-02-19 11:15:00,44.8,20.1,29.94,SW,220,2.0,10.0,37,0.00,,---,0.00,VWS V14.01,2013-02-19 16:15:00,
2013-02-19 11:18:00,44.8,19.5,29.94,SW,222,6.0,11.0,36,0.00,,---,0.00,VWS V14.01,2013-02-19 16:18:00,
2013-02-19 11:20:00,44.8,19.5,29.94,South,186,7.0,11.0,36,0.00,,---,0.00,VWS V14.01,2013-02-19 16:20:00,
2013-02-19 11:23:00,44.8,19.5,29.94,SW,219,6.0,11.0,36,0.00,,---,0.00,VWS V14.01,2013-02-19 16:23:00,
2013-02-19 11:25:00,44.8,19.5,29.94,SSW,210,3.0,11.0,36,0.00,,---,0.00,VWS V14.01,2013-02-19 16:25:00,
2013-02-19 11:28:00,44.8,19.5,29.94,SW,227,7.0,11.0,36,0.00,,---,0.00,VWS V14.01,2013-02-19 16:28:00,
2013-02-19 11:30:00,44.6,19.3,29.94,West,261,2.0,11.0,36,0.00,,---,0.00,VWS V14.01,2013-02-19 16:30:00,
2013-02-19 11:33:00,44.9,20.2,29.94,SSE,164,5.0,7.0,37,0.00,,---,0.00,VWS V14.01,2013-02-19 16:33:00,
2013-02-19 11:35:00,44.9,20.2,29.94,SSW,205,0.0,7.0,37,0.00,,---,0.00,VWS V14.01,2013-02-19 16:35:00,
2013-02-19 11:38:00,45.4,20.0,29.94,South,175,5.0,8.0,36,0.00,,---,0.00,VWS V14.01,2013-02-19 16:38:00,
2013-02-19 11:40:00,45.4,20.0,29.94,SSW,198,1.0,8.0,36,0.00,,---,0.00,VWS V14.01,2013-02-19 16:40:00,
2013-02-19 11:44:00,45.4,20.7,29.94,SSE,148,3.0,9.0,37,0.00,,---,0.00,VWS V14.01,2013-02-19 16:44:00,
2013-02-19 11:45:00,45.4,20.7,29.93,SSE,151,2.0,9.0,37,0.00,,---,0.00,VWS V14.01,2013-02-19 16:45:00,
2013-02-19 11:49:00,45.5,20.8,29.93,SSE,157,2.0,7.0,37,0.00,,---,0.00,VWS V14.01,2013-02-19 16:49:00,
2013-02-19 11:50:00,45.7,20.9,29.93,South,176,1.0,7.0,37,0.00,,---,0.00,VWS V14.01,2013-02-19 16:50:00,
2013-02-19 11:54:00,45.7,20.3,29.93,SSE,154,16.0,16.0,36,0.00,,---,0.00,VWS V14.01,2013-02-19 16:54:00,
2013-02-19 11:55:00,45.5,20.8,29.93,SW,224,2.0,16.0,37,0.00,,---,0.00,VWS V14.01,2013-02-19 16:55:00,
2013-02-19 11:56:00,45.5,20.8,29.93,SSE,148,1.0,16.0,37,0.00,,---,0.00,VWS V14.01,2013-02-19 16:56:00,
2013-02-19 11:59:00,45.7,20.9,29.93,SSE,162,4.0,16.0,37,0.00,,---,0.00,VWS V14.01,2013-02-19 16:59:00,
2013-02-19 12:00:00,45.7,20.9,29.91,SW,222,5.0,16.0,37,0.00,,---,0.00,VWS V14.01,2013-02-19 17:00:00,
2013-02-19 12:01:00,45.7,20.9,29.91,SW,230,3.0,5.0,37,0.00,,---,0.00,VWS V14.01,2013-02-19 17:01:00,
2013-02-19 12:04:00,45.7,20.3,29.91,SSE,147,5.0,11.0,36,0.00,,---,0.00,VWS V14.01,2013-02-19 17:04:00,
2013-02-19 12:06:00,45.8,20.4,29.91,South,184,1.0,11.0,36,0.00,,---,0.00,VWS V14.01,2013-02-19 17:06:00,
2013-02-19 12:09:00,46.1,20.0,29.91,South,171,8.0,11.0,35,0.00,,---,0.00,VWS V14.01,2013-02-19 17:09:00,
2013-02-19 12:11:00,46.1,20.6,29.91,SSE,161,5.0,11.0,36,0.00,,---,0.00,VWS V14.01,2013-02-19 17:11:00,
2013-02-19 12:14:00,46.0,19.9,29.91,SE,143,14.0,14.0,35,0.00,,---,0.00,VWS V14.01,2013-02-19 17:14:00,
2013-02-19 12:16:00,45.8,20.4,29.90,South,186,3.0,12.0,36,0.00,,---,0.00,VWS V14.01,2013-02-19 17:16:00,
2013-02-19 12:19:00,45.8,20.4,29.90,South,178,13.0,13.0,36,0.00,,---,0.00,VWS V14.01,2013-02-19 17:19:00,
2013-02-19 12:21:00,45.7,20.3,29.90,SW,216,5.0,13.0,36,0.00,,---,0.00,VWS V14.01,2013-02-19 17:21:00,
2013-02-19 12:25:00,45.4,20.7,29.90,WSW,246,3.0,13.0,37,0.00,,---,0.00,VWS V14.01,2013-02-19 17:25:00,
2013-02-19 12:26:00,45.2,20.5,29.90,SW,234,10.0,13.0,37,0.00,,---,0.00,VWS V14.01,2013-02-19 17:26:00,
2013-02-19 12:30:00,45.2,21.1,29.90,SSE,160,4.0,13.0,38,0.00,,---,0.00,VWS V14.01,2013-02-19 17:30:00,
2013-02-19 12:31:00,45.1,21.0,29.90,SSE,158,9.0,9.0,38,0.00,,---,0.00,VWS V14.01,2013-02-19 17:31:00,
2013-02-19 12:35:00,44.9,21.5,29.90,SW,222,5.0,12.0,39,0.00,,---,0.00,VWS V14.01,2013-02-19 17:35:00,
2013-02-19 12:36:00,44.9,21.5,29.90,SSW,213,8.0,12.0,39,0.00,,---,0.00,VWS V14.01,2013-02-19 17:36:00,
2013-02-19 12:40:00,44.8,22.0,29.90,SSW,203,9.0,13.0,40,0.00,,---,0.00,VWS V14.01,2013-02-19 17:40:00,
2013-02-19 12:41:00,44.8,22.0,29.90,SSW,193,13.0,13.0,40,0.00,,---,0.00,VWS V14.01,2013-02-19 17:41:00,
2013-02-19 12:42:00,44.8,22.0,29.90,SSW,195,2.0,13.0,40,0.00,,---,0.00,VWS V14.01,2013-02-19 17:42:00,
2013-02-19 12:45:00,44.9,21.5,29.89,SSE,160,7.0,13.0,39,0.00,,---,0.00,VWS V14.01,2013-02-19 17:45:00,
2013-02-19 12:46:00,45.1,21.6,29.89,WSW,240,3.0,6.0,39,0.00,,---,0.00,VWS V14.01,2013-02-19 17:46:00,
2013-02-19 12:47:00,45.1,21.6,29.89,SE,140,0.0,6.0,39,0.00,,---,0.00,VWS V14.01,2013-02-19 17:47:00,
2013-02-19 12:50:00,45.1,21.6,29.89,SSW,213,3.0,11.0,39,0.00,,---,0.00,VWS V14.01,2013-02-19 17:50:00,
2013-02-19 12:51:00,45.1,21.6,29.89,SSW,193,5.0,11.0,39,0.00,,---,0.00,VWS V14.01,2013-02-19 17:51:00,
2013-02-19 12:52:00,45.2,21.7,29.89,South,189,5.0,11.0,39,0.00,,---,0.00,VWS V14.01,2013-02-19 17:52:00,
2013-02-19 12:55:00,45.4,21.9,29.89,South,181,6.0,11.0,39,0.00,,---,0.00,VWS V14.01,2013-02-19 17:55:00,
2013-02-19 12:56:00,45.4,21.9,29.89,SW,232,8.0,13.0,39,0.00,,---,0.00,VWS V14.01,2013-02-19 17:56:00,
2013-02-19 12:57:00,45.4,21.9,29.89,SW,229,5.0,13.0,39,0.00,,---,0.00,VWS V14.01,2013-02-19 17:57:00,
2013-02-19 13:00:00,45.4,21.9,29.88,SW,220,2.0,13.0,39,0.00,,---,0.00,VWS V14.01,2013-02-19 18:00:00,
2013-02-19 13:02:00,45.5,22.0,29.88,WSW,247,4.0,5.0,39,0.00,,---,0.00,VWS V14.01,2013-02-19 18:02:00,
2013-02-19 13:05:00,45.8,21.6,29.88,SW,216,8.0,11.0,38,0.00,,---,0.00,VWS V14.01,2013-02-19 18:05:00,
2013-02-19 13:07:00,46.0,21.8,29.88,WSW,246,11.0,11.0,38,0.00,,---,0.00,VWS V14.01,2013-02-19 18:07:00,
2013-02-19 13:11:00,46.4,21.6,29.88,SSW,192,6.0,17.0,37,0.00,,---,0.00,VWS V14.01,2013-02-19 18:11:00,
2013-02-19 13:12:00,46.4,21.6,29.88,South,175,8.0,17.0,37,0.00,,---,0.00,VWS V14.01,2013-02-19 18:12:00,
2013-02-19 13:16:00,46.5,22.3,29.87,SSW,203,8.0,8.0,38,0.00,,---,0.00,VWS V14.01,2013-02-19 18:16:00,
2013-02-19 13:17:00,46.5,21.6,29.87,WSW,237,9.0,9.0,37,0.00,,---,0.00,VWS V14.01,2013-02-19 18:17:00,
2013-02-19 13:18:00,46.5,21.6,29.87,South,169,8.0,9.0,37,0.00,,---,0.00,VWS V14.01,2013-02-19 18:18:00,
2013-02-19 13:21:00,46.8,22.5,29.87,SW,234,3.0,11.0,38,0.00,,---,0.00,VWS V14.01,2013-02-19 18:21:00,
2013-02-19 13:22:00,46.8,21.9,29.87,SW,229,10.0,11.0,37,0.00,,---,0.00,VWS V14.01,2013-02-19 18:22:00,
2013-02-19 13:23:00,46.8,21.9,29.87,WSW,251,3.0,11.0,37,0.00,,---,0.00,VWS V14.01,2013-02-19 18:23:00,
2013-02-19 13:26:00,46.7,22.5,29.87,SW,219,1.0,11.0,38,0.00,,---,0.00,VWS V14.01,2013-02-19 18:26:00,
2013-02-19 13:27:00,46.7,22.5,29.87,SSW,208,4.0,11.0,38,0.00,,---,0.00,VWS V14.01,2013-02-19 18:27:00,
2013-02-19 13:28:00,46.7,22.5,29.87,WSW,237,1.0,11.0,38,0.00,,---,0.00,VWS V14.01,2013-02-19 18:28:00,
2013-02-19 13:31:00,46.8,22.5,29.85,South,181,4.0,8.0,38,0.00,,---,0.00,VWS V14.01,2013-02-19 18:31:00,
2013-02-19 13:32:00,46.8,22.5,29.85,SSW,199,8.0,8.0,38,0.00,,---,0.00,VWS V14.01,2013-02-19 18:32:00,
2013-02-19 13:33:00,46.7,22.5,29.85,South,184,2.0,8.0,38,0.00,,---,0.00,VWS V14.01,2013-02-19 18:33:00,
2013-02-19 13:37:00,46.5,22.9,29.85,WSW,241,6.0,8.0,39,0.00,,---,0.00,VWS V14.01,2013-02-19 18:37:00,
2013-02-19 13:38:00,46.4,23.4,29.85,SSW,192,2.0,9.0,40,0.00,,---,0.00,VWS V14.01,2013-02-19 18:38:00,
2013-02-19 13:42:00,46.2,23.2,29.85,South,181,0.0,9.0,40,0.00,,---,0.00,VWS V14.01,2013-02-19 18:42:00,
2013-02-19 13:43:00,46.1,23.1,29.85,SW,216,7.0,9.0,40,0.00,,---,0.00,VWS V14.01,2013-02-19 18:43:00,
2013-02-19 13:47:00,46.0,23.6,29.84,South,181,1.0,5.0,41,0.00,,---,0.00,VWS V14.01,2013-02-19 18:47:00,
2013-02-19 13:48:00,46.0,23.6,29.84,SSW,193,4.0,6.0,41,0.00,,---,0.00,VWS V14.01,2013-02-19 18:48:00,
2013-02-19 13:52:00,46.0,23.6,29.84,WSW,246,3.0,6.0,41,0.00,,---,0.00,VWS V14.01,2013-02-19 18:52:00,
2013-02-19 13:53:00,46.0,23.6,29.84,SSE,155,6.0,6.0,41,0.00,,---,0.00,VWS V14.01,2013-02-19 18:53:00,
2013-02-19 13:54:00,46.0,23.6,29.84,SW,234,2.0,6.0,41,0.00,,---,0.00,VWS V14.01,2013-02-19 18:54:00,
2013-02-19 13:57:00,46.1,23.7,29.84,SW,219,0.0,6.0,41,0.00,,---,0.00,VWS V14.01,2013-02-19 18:57:00,
2013-02-19 13:58:00,46.2,23.8,29.84,SW,219,0.0,6.0,41,0.00,,---,0.00,VWS V14.01,2013-02-19 18:58:00,
2013-02-19 13:59:00,46.2,23.8,29.84,SSW,200,3.0,7.0,41,0.00,,---,0.00,VWS V14.01,2013-02-19 18:59:00,
2013-02-19 14:02:00,46.4,23.4,29.83,SW,217,1.0,5.0,40,0.00,,---,0.00,VWS V14.01,2013-02-19 19:02:00,
2013-02-19 14:03:00,46.4,23.4,29.83,SW,222,5.0,12.0,40,0.00,,---,0.00,VWS V14.01,2013-02-19 19:03:00,
2013-02-19 14:04:00,46.4,23.4,29.83,WSW,237,2.0,12.0,40,0.00,,---,0.00,VWS V14.01,2013-02-19 19:04:00,
2013-02-19 14:07:00,46.5,23.5,29.83,South,172,5.0,12.0,40,0.00,,---,0.00,VWS V14.01,2013-02-19 19:07:00,
2013-02-19 14:08:00,46.5,23.5,29.83,SSW,212,0.0,12.0,40,0.00,,---,0.00,VWS V14.01,2013-02-19 19:08:00,
2013-02-19 14:09:00,46.7,23.7,29.83,SSW,202,1.0,12.0,40,0.00,,---,0.00,VWS V14.01,2013-02-19 19:09:00,
2013-02-19 14:12:00,46.7,23.7,29.83,South,171,6.0,12.0,40,0.00,,---,0.00,VWS V14.01,2013-02-19 19:12:00,
2013-02-19 14:13:00,46.7,23.7,29.83,South,181,7.0,12.0,40,0.00,,---,0.00,VWS V14.01,2013-02-19 19:13:00,
2013-02-19 14:14:00,46.5,23.5,29.83,South,169,3.0,12.0,40,0.00,,---,0.00,VWS V14.01,2013-02-19 19:14:00,
2013-02-19 14:17:00,46.5,24.1,29.82,SW,233,3.0,7.0,41,0.00,,---,0.00,VWS V14.01,2013-02-19 19:17:00,
2013-02-19 14:18:00,46.5,24.1,29.82,South,176,2.0,7.0,41,0.00,,---,0.00,VWS V14.01,2013-02-19 19:18:00,
2013-02-19 14:19:00,46.5,24.1,29.82,South,185,1.0,7.0,41,0.00,,---,0.00,VWS V14.01,2013-02-19 19:19:00,
2013-02-19 14:22:00,46.4,24.6,29.82,SSW,208,1.0,7.0,42,0.00,,---,0.00,VWS V14.01,2013-02-19 19:22:00,
2013-02-19 14:23:00,46.4,24.6,29.82,SSW,208,1.0,7.0,42,0.00,,---,0.00,VWS V14.01,2013-02-19 19:23:00,
2013-02-19 14:25:00,46.4,24.6,29.82,South,189,1.0,7.0,42,0.00,,---,0.00,VWS V14.01,2013-02-19 19:25:00,
2013-02-19 14:28:00,46.4,25.1,29.82,SW,227,3.0,10.0,43,0.00,,---,0.00,VWS V14.01,2013-02-19 19:28:00,
2013-02-19 14:30:00,46.4,25.7,29.82,South,188,5.0,10.0,44,0.00,,---,0.00,VWS V14.01,2013-02-19 19:30:00,
2013-02-19 14:33:00,46.2,26.0,29.82,SW,216,2.0,5.0,45,0.00,,---,0.00,VWS V14.01,2013-02-19 19:33:00,
2013-02-19 14:35:00,46.2,26.0,29.82,South,178,5.0,8.0,45,0.00,,---,0.00,VWS V14.01,2013-02-19 19:35:00,
2013-02-19 14:38:00,46.1,26.5,29.82,SW,220,3.0,8.0,46,0.00,,---,0.00,VWS V14.01,2013-02-19 19:38:00,
2013-02-19 14:41:00,46.1,27.0,29.82,South,189,2.0,8.0,47,0.00,,---,0.00,VWS V14.01,2013-02-19 19:41:00,
2013-02-19 14:43:00,46.0,27.4,29.82,SSW,196,5.0,8.0,48,0.00,,---,0.00,VWS V14.01,2013-02-19 19:43:00,
2013-02-19 14:44:00,46.0,27.4,29.82,SW,227,3.0,8.0,48,0.00,,---,0.00,VWS V14.01,2013-02-19 19:44:00,
2013-02-19 14:46:00,45.8,27.2,29.81,SSW,202,3.0,3.0,48,0.00,,---,0.00,VWS V14.01,2013-02-19 19:46:00,
2013-02-19 14:48:00,45.7,27.6,29.81,SSW,199,2.0,6.0,49,0.00,,---,0.00,VWS V14.01,2013-02-19 19:48:00,
2013-02-19 14:49:00,45.7,27.6,29.81,SW,232,6.0,6.0,49,0.00,,---,0.00,VWS V14.01,2013-02-19 19:49:00,
2013-02-19 14:51:00,45.7,28.1,29.81,WSW,250,6.0,11.0,50,0.00,,---,0.00,VWS V14.01,2013-02-19 19:51:00,
2013-02-19 14:53:00,45.5,28.4,29.81,SSW,213,7.0,11.0,51,0.00,,---,0.00,VWS V14.01,2013-02-19 19:53:00,
2013-02-19 14:54:00,45.5,28.9,29.81,SW,217,7.0,11.0,52,0.00,,---,0.00,VWS V14.01,2013-02-19 19:54:00,
2013-02-19 14:56:00,45.5,28.9,29.81,SSW,203,2.0,11.0,52,0.00,,---,0.00,VWS V14.01,2013-02-19 19:56:00,
2013-02-19 14:58:00,45.4,29.3,29.81,South,172,3.0,11.0,53,0.00,,---,0.00,VWS V14.01,2013-02-19 19:58:00,
2013-02-19 14:59:00,45.4,29.3,29.81,SW,216,2.0,11.0,53,0.00,,---,0.00,VWS V14.01,2013-02-19 19:59:00,
2013-02-19 15:01:00,45.4,29.7,29.80,SW,227,3.0,4.0,54,0.00,,---,0.00,VWS V14.01,2013-02-19 20:01:00,
2013-02-19 15:04:00,45.2,30.5,29.80,WSW,250,2.0,6.0,56,0.00,,---,0.00,VWS V14.01,2013-02-19 20:04:00,
2013-02-19 15:06:00,45.1,30.8,29.80,South,186,3.0,6.0,57,0.00,,---,0.00,VWS V14.01,2013-02-19 20:06:00,
2013-02-19 15:09:00,44.9,31.5,29.80,SW,227,6.0,7.0,59,0.00,,---,0.00,VWS V14.01,2013-02-19 20:09:00,
2013-02-19 15:11:00,44.6,32.0,29.80,WSW,241,0.0,7.0,61,0.00,,---,0.00,VWS V14.01,2013-02-19 20:11:00,
2013-02-19 15:14:00,44.5,32.3,29.80,West,260,3.0,7.0,62,0.00,,---,0.00,VWS V14.01,2013-02-19 20:14:00,
2013-02-19 15:16:00,44.3,33.3,29.79,South,181,2.0,4.0,65,0.01,,---,0.01,VWS V14.01,2013-02-19 20:16:00,
2013-02-19 15:19:00,44.2,34.0,29.79,SW,223,9.0,9.0,67,0.01,,---,0.01,VWS V14.01,2013-02-19 20:19:00,
2013-02-19 15:21:00,44.1,34.6,29.79,SW,233,6.0,9.0,69,0.01,,---,0.01,VWS V14.01,2013-02-19 20:21:00,
2013-02-19 15:24:00,44.1,35.3,29.79,SW,227,7.0,9.0,71,0.01,,---,0.01,VWS V14.01,2013-02-19 20:24:00,
2013-02-19 15:26:00,43.9,35.8,29.79,WSW,243,3.0,11.0,73,0.01,,---,0.01,VWS V14.01,2013-02-19 20:26:00,
2013-02-19 15:29:00,43.9,36.2,29.79,SW,220,0.0,11.0,74,0.02,,---,0.02,VWS V14.01,2013-02-19 20:29:00,
2013-02-19 15:31:00,43.9,37.2,29.78,SW,216,5.0,8.0,77,0.02,,---,0.02,VWS V14.01,2013-02-19 20:31:00,
2013-02-19 15:34:00,43.9,37.5,29.78,SSW,213,4.0,8.0,78,0.02,,---,0.02,VWS V14.01,2013-02-19 20:34:00,
2013-02-19 15:35:00,43.9,37.5,29.78,South,172,7.0,8.0,78,0.02,,---,0.02,VWS V14.01,2013-02-19 20:35:00,
2013-02-19 15:36:00,43.9,37.8,29.78,SSW,202,6.0,8.0,79,0.02,,---,0.02,VWS V14.01,2013-02-19 20:36:00,
2013-02-19 15:39:00,43.9,37.8,29.78,WSW,251,1.0,8.0,79,0.02,,---,0.02,VWS V14.01,2013-02-19 20:39:00,
2013-02-19 15:40:00,43.9,37.8,29.78,SSW,195,1.0,8.0,79,0.02,,---,0.02,VWS V14.01,2013-02-19 20:40:00,
2013-02-19 15:41:00,43.9,38.1,29.78,South,191,2.0,8.0,80,0.02,,---,0.02,VWS V14.01,2013-02-19 20:41:00,
2013-02-19 15:44:00,43.9,38.5,29.78,SSW,208,0.0,8.0,81,0.02,,---,0.02,VWS V14.01,2013-02-19 20:44:00,
2013-02-19 15:45:00,43.9,38.5,29.76,South,178,1.0,11.0,81,0.02,,---,0.02,VWS V14.01,2013-02-19 20:45:00,
2013-02-19 15:46:00,43.9,38.5,29.76,SSW,199,7.0,7.0,81,0.02,,---,0.02,VWS V14.01,2013-02-19 20:46:00,
2013-02-19 15:49:00,43.9,38.8,29.76,South,189,2.0,7.0,82,0.02,,---,0.02,VWS V14.01,2013-02-19 20:49:00,
2013-02-19 15:50:00,43.8,38.7,29.76,SSW,206,6.0,7.0,82,0.02,,---,0.02,VWS V14.01,2013-02-19 20:50:00,
2013-02-19 15:51:00,43.8,38.7,29.76,SSW,209,0.0,7.0,82,0.02,,---,0.02,VWS V14.01,2013-02-19 20:51:00,
2013-02-19 15:54:00,43.8,39.0,29.76,South,184,1.0,7.0,83,0.02,,---,0.02,VWS V14.01,2013-02-19 20:54:00,
2013-02-19 15:55:00,43.8,39.0,29.76,SE,136,5.0,7.0,83,0.02,,---,0.02,VWS V14.01,2013-02-19 20:55:00,
2013-02-19 15:56:00,43.8,39.3,29.76,SSE,148,2.0,7.0,84,0.02,,---,0.02,VWS V14.01,2013-02-19 20:56:00,
2013-02-19 16:00:00,43.8,39.3,29.75,South,186,6.0,7.0,84,0.02,,---,0.02,VWS V14.01,2013-02-19 21:00:00,
2013-02-19 16:01:00,43.8,39.3,29.75,South,171,6.0,6.0,84,0.02,,---,0.02,VWS V14.01,2013-02-19 21:01:00,
2013-02-19 16:05:00,43.8,39.6,29.75,SSE,152,3.0,7.0,85,0.02,,---,0.02,VWS V14.01,2013-02-19 21:05:00,
2013-02-19 16:06:00,43.8,39.6,29.75,South,191,1.0,7.0,85,0.02,,---,0.02,VWS V14.01,2013-02-19 21:06:00,
2013-02-19 16:10:00,43.6,39.7,29.75,SSW,195,10.0,10.0,86,0.02,,---,0.02,VWS V14.01,2013-02-19 21:10:00,
2013-02-19 16:11:00,43.6,39.7,29.75,South,169,7.0,10.0,86,0.03,,---,0.03,VWS V14.01,2013-02-19 21:11:00,
2013-02-19 16:12:00,43.6,39.7,29.75,South,171,4.0,10.0,86,0.03,,---,0.03,VWS V14.01,2013-02-19 21:12:00,
2013-02-19 16:15:00,43.6,39.7,29.74,South,178,0.0,10.0,86,0.03,,---,0.03,VWS V14.01,2013-02-19 21:15:00,
2013-02-19 16:16:00,43.6,40.0,29.74,SSE,164,3.0,3.0,87,0.03,,---,0.03,VWS V14.01,2013-02-19 21:16:00,
2013-02-19 16:17:00,43.5,39.9,29.74,SW,216,4.0,4.0,87,0.03,,---,0.03,VWS V14.01,2013-02-19 21:17:00,
2013-02-19 16:20:00,43.3,39.7,29.74,South,179,3.0,6.0,87,0.03,,---,0.03,VWS V14.01,2013-02-19 21:20:00,
2013-02-19 16:21:00,43.3,40.0,29.74,South,178,6.0,7.0,88,0.03,,---,0.03,VWS V14.01,2013-02-19 21:21:00,
2013-02-19 16:22:00,43.3,40.0,29.74,South,174,5.0,7.0,88,0.03,,---,0.03,VWS V14.01,2013-02-19 21:22:00,
2013-02-19 16:25:00,43.3,40.3,29.74,South,172,0.0,7.0,89,0.04,,---,0.04,VWS V14.01,2013-02-19 21:25:00,
2013-02-19 16:27:00,43.2,40.2,29.74,SSE,161,6.0,7.0,89,0.04,,---,0.04,VWS V14.01,2013-02-19 21:27:00,
2013-02-19 16:30:00,43.2,40.5,29.73,South,175,0.0,7.0,90,0.04,,---,0.04,VWS V14.01,2013-02-19 21:30:00,
2013-02-19 16:32:00,43.2,40.5,29.73,South,175,1.0,3.0,90,0.02,,---,0.04,VWS V14.01,2013-02-19 21:32:00,
2013-02-19 16:35:00,43.2,40.8,29.73,SSW,209,0.0,7.0,91,0.02,,---,0.04,VWS V14.01,2013-02-19 21:35:00,
2013-02-19 16:37:00,43.2,41.0,29.73,SSW,202,0.0,7.0,92,0.02,,---,0.04,VWS V14.01,2013-02-19 21:37:00,
2013-02-19 16:40:00,43.2,41.0,29.73,WSW,244,0.0,7.0,92,0.02,,---,0.04,VWS V14.01,2013-02-19 21:40:00,
2013-02-19 16:42:00,43.2,41.3,29.73,SSW,205,2.0,7.0,93,0.02,,---,0.04,VWS V14.01,2013-02-19 21:42:00,
2013-02-19 16:45:00,43.2,41.6,29.71,SSE,150,3.0,7.0,94,0.03,,---,0.05,VWS V14.01,2013-02-19 21:45:00,
2013-02-19 16:47:00,43.2,41.9,29.71,SSE,164,0.0,3.0,95,0.03,,---,0.05,VWS V14.01,2013-02-19 21:47:00,
2013-02-19 16:50:00,43.2,41.9,29.71,SSW,196,0.0,4.0,95,0.03,,---,0.05,VWS V14.01,2013-02-19 21:50:00,
2013-02-19 16:52:00,43.1,42.0,29.71,SSE,151,2.0,5.0,96,0.04,,---,0.06,VWS V14.01,2013-02-19 21:52:00,
2013-02-19 16:55:00,43.1,42.3,29.71,South,172,1.0,5.0,97,0.04,,---,0.06,VWS V14.01,2013-02-19 21:55:00,
2013-02-19 16:57:00,43.1,42.3,29.71,South,179,1.0,5.0,97,0.04,,---,0.06,VWS V14.01,2013-02-19 21:57:00,
2013-02-19 16:58:00,43.1,42.3,29.71,South,179,2.0,5.0,97,0.04,,---,0.06,VWS V14.01,2013-02-19 21:58:00,
2013-02-19 17:00:00,42.9,42.4,29.69,South,179,1.0,5.0,98,0.04,,---,0.06,VWS V14.01,2013-02-19 22:00:00,
2013-02-19 17:02:00,42.9,42.4,29.69,South,179,0.0,1.0,98,0.05,,---,0.07,VWS V14.01,2013-02-19 22:02:00,
2013-02-19 17:03:00,42.9,42.4,29.69,South,179,0.0,1.0,98,0.05,,---,0.07,VWS V14.01,2013-02-19 22:03:00,
2013-02-19 17:06:00,42.8,42.5,29.69,South,179,0.0,1.0,99,0.05,,---,0.07,VWS V14.01,2013-02-19 22:06:00,
2013-02-19 17:07:00,42.6,42.3,29.69,South,179,0.0,1.0,99,0.05,,---,0.07,VWS V14.01,2013-02-19 22:07:00,
2013-02-19 17:08:00,42.6,42.3,29.69,South,179,0.0,1.0,99,0.06,,---,0.08,VWS V14.01,2013-02-19 22:08:00,
2013-02-19 17:11:00,42.5,42.2,29.69,WSW,250,0.0,3.0,99,0.06,,---,0.08,VWS V14.01,2013-02-19 22:11:00,
2013-02-19 17:12:00,42.5,42.5,29.69,WSW,250,0.0,3.0,100,0.06,,---,0.08,VWS V14.01,2013-02-19 22:12:00,
2013-02-19 17:13:00,42.5,42.5,29.69,WSW,250,0.0,3.0,100,0.06,,---,0.08,VWS V14.01,2013-02-19 22:13:00,
2013-02-19 17:17:00,42.3,42.3,29.69,WSW,250,0.0,0.0,100,0.06,,---,0.09,VWS V14.01,2013-02-19 22:17:00,
2013-02-19 17:18:00,42.3,42.3,29.69,WSW,250,0.0,0.0,100,0.06,,---,0.09,VWS V14.01,2013-02-19 22:18:00,
2013-02-19 17:22:00,42.1,42.1,29.69,WSW,250,0.0,0.0,100,0.07,,---,0.10,VWS V14.01,2013-02-19 22:22:00,
2013-02-19 17:23:00,42.1,42.1,29.69,WSW,250,0.0,0.0,100,0.07,,---,0.10,VWS V14.01,2013-02-19 22:23:00,
2013-02-19 17:27:00,42.1,42.1,29.69,WSW,250,0.0,0.0,100,0.07,,---,0.10,VWS V14.01,2013-02-19 22:27:00,
2013-02-19 17:28:00,42.1,42.1,29.69,WSW,250,0.0,0.0,100,0.07,,---,0.10,VWS V14.01,2013-02-19 22:28:00,
2013-02-19 17:32:00,42.1,42.1,29.68,WSW,250,0.0,0.0,100,0.07,,---,0.11,VWS V14.01,2013-02-19 22:32:00,
2013-02-19 17:33:00,42.1,42.1,29.68,WSW,250,0.0,0.0,100,0.07,,---,0.11,VWS V14.01,2013-02-19 22:33:00,
2013-02-19 17:34:00,42.1,42.1,29.68,WSW,250,0.0,0.0,100,0.07,,---,0.11,VWS V14.01,2013-02-19 22:34:00,
2013-02-19 17:38:00,42.1,42.1,29.68,WSW,250,0.0,0.0,100,0.08,,---,0.12,VWS V14.01,2013-02-19 22:38:00,
2013-02-19 17:39:00,41.9,41.9,29.68,WSW,250,0.0,0.0,100,0.08,,---,0.12,VWS V14.01,2013-02-19 22:39:00,
2013-02-19 17:43:00,42.2,42.2,29.68,SSE,165,0.0,3.0,100,0.09,,---,0.13,VWS V14.01,2013-02-19 22:43:00,
2013-02-19 17:44:00,42.2,42.2,29.68,SSE,165,0.0,3.0,100,0.09,,---,0.13,VWS V14.01,2013-02-19 22:44:00,
2013-02-19 17:48:00,42.3,42.3,29.67,South,181,0.0,5.0,100,0.08,,---,0.13,VWS V14.01,2013-02-19 22:48:00,
2013-02-19 17:49:00,42.3,42.3,29.67,South,182,0.0,5.0,100,0.08,,---,0.13,VWS V14.01,2013-02-19 22:49:00,
2013-02-19 17:53:00,42.6,42.6,29.67,SSE,162,3.0,5.0,100,0.09,,---,0.14,VWS V14.01,2013-02-19 22:53:00,
2013-02-19 17:54:00,42.6,42.6,29.67,SSE,162,3.0,5.0,100,0.09,,---,0.14,VWS V14.01,2013-02-19 22:54:00,
2013-02-19 17:58:00,42.9,42.9,29.67,South,188,1.0,7.0,100,0.10,,---,0.15,VWS V14.01,2013-02-19 22:58:00,
2013-02-19 17:59:00,42.9,42.9,29.67,South,188,0.0,7.0,100,0.10,,---,0.15,VWS V14.01,2013-02-19 22:59:00,
2013-02-19 18:04:00,43.1,43.1,29.66,SSE,155,1.0,5.0,100,0.10,,---,0.16,VWS V14.01,2013-02-19 23:04:00,
2013-02-19 18:09:00,43.2,43.2,29.66,South,182,0.0,5.0,100,0.11,,---,0.17,VWS V14.01,2013-02-19 23:09:00,
2013-02-19 18:14:00,43.2,43.2,29.66,SSE,150,1.0,5.0,100,0.12,,---,0.18,VWS V14.01,2013-02-19 23:14:00,
2013-02-19 18:19:00,43.3,43.3,29.65,SSE,168,2.0,3.0,100,0.09,,---,0.18,VWS V14.01,2013-02-19 23:19:00,
2013-02-19 18:20:00,43.3,43.3,29.65,SSE,158,1.0,3.0,100,0.09,,---,0.18,VWS V14.01,2013-02-19 23:20:00,
2013-02-19 18:24:00,43.5,43.5,29.65,South,182,2.0,5.0,100,0.09,,---,0.18,VWS V14.01,2013-02-19 23:24:00,
2013-02-19 18:25:00,43.5,43.5,29.65,South,175,6.0,6.0,100,0.09,,---,0.18,VWS V14.01,2013-02-19 23:25:00,
2013-02-19 18:29:00,43.8,43.8,29.65,South,181,6.0,6.0,100,0.10,,---,0.19,VWS V14.01,2013-02-19 23:29:00,
2013-02-19 18:30:00,43.8,43.8,29.64,SSE,165,2.0,6.0,100,0.10,,---,0.19,VWS V14.01,2013-02-19 23:30:00,
2013-02-19 18:34:00,43.8,43.8,29.64,SSE,160,0.0,5.0,100,0.08,,---,0.19,VWS V14.01,2013-02-19 23:34:00,
2013-02-19 18:35:00,43.8,43.8,29.64,South,191,2.0,5.0,100,0.08,,---,0.19,VWS V14.01,2013-02-19 23:35:00,
2013-02-19 18:39:00,43.9,43.9,29.64,SSE,164,0.0,6.0,100,0.09,,---,0.20,VWS V14.01,2013-02-19 23:39:00,
2013-02-19 18:40:00,43.9,43.9,29.64,SSE,155,2.0,6.0,100,0.09,,---,0.20,VWS V14.01,2013-02-19 23:40:00,
2013-02-19 18:44:00,43.9,43.9,29.64,SSE,160,2.0,6.0,100,0.09,,---,0.20,VWS V14.01,2013-02-19 23:44:00,
2013-02-19 18:45:00,43.9,43.9,29.64,South,184,2.0,6.0,100,0.09,,---,0.20,VWS V14.01,2013-02-19 23:45:00,
2013-02-19 18:49:00,43.9,43.9,29.64,SSE,155,8.0,8.0,100,0.08,,---,0.21,VWS V14.01,2013-02-19 23:49:00,
2013-02-19 18:50:00,44.1,44.1,29.64,SSE,161,6.0,8.0,100,0.08,,---,0.21,VWS V14.01,2013-02-19 23:50:00,
2013-02-19 18:54:00,44.5,44.5,29.64,SE,136,2.0,9.0,100,0.08,,---,0.21,VWS V14.01,2013-02-19 23:54:00,
2013-02-19 18:55:00,44.6,44.6,29.64,SSE,162,6.0,9.0,100,0.08,,---,0.21,VWS V14.01,2013-02-19 23:55:00,
2013-02-19 18:59:00,44.9,44.9,29.64,SSE,165,6.0,9.0,100,0.08,,---,0.21,VWS V14.01,2013-02-19 23:59:00,
2013-02-19 19:00:00,44.9,44.9,29.62,SSE,152,5.0,9.0,100,0.08,,---,0.21,VWS V14.01,2013-02-20 00:00:00,
2013-02-19 19:04:00,44.9,44.9,29.62,South,179,0.0,7.0,100,0.05,,---,0.21,VWS V14.01,2013-02-20 00:04:00,
2013-02-19 19:05:00,44.9,44.9,29.62,South,179,3.0,7.0,100,0.05,,---,0.21,VWS V14.01,2013-02-20 00:05:00,
2013-02-19 19:09:00,44.8,44.8,29.62,SSE,165,0.0,7.0,100,0.05,,---,0.21,VWS V14.01,2013-02-20 00:09:00,
2013-02-19 19:10:00,44.8,44.8,29.62,SSW,192,1.0,7.0,100,0.05,,---,0.21,VWS V14.01,2013-02-20 00:10:00,
2013-02-19 19:14:00,44.8,44.8,29.60,South,171,0.0,7.0,100,0.05,,---,0.21,VWS V14.01,2013-02-20 00:14:00,
2013-02-19 19:15:00,44.8,44.8,29.60,ESE,116,3.0,7.0,100,0.05,,---,0.21,VWS V14.01,2013-02-20 00:15:00,
2013-02-19 19:19:00,44.9,44.9,29.60,South,175,3.0,6.0,100,0.03,,---,0.21,VWS V14.01,2013-02-20 00:19:00,
2013-02-19 19:20:00,44.9,44.9,29.60,South,176,3.0,6.0,100,0.03,,---,0.21,VWS V14.01,2013-02-20 00:20:00,
2013-02-19 19:21:00,44.9,44.9,29.60,South,184,5.0,6.0,100,0.03,,---,0.21,VWS V14.01,2013-02-20 00:21:00,
2013-02-19 19:24:00,45.1,45.1,29.60,South,172,0.0,7.0,100,0.04,,---,0.22,VWS V14.01,2013-02-20 00:24:00,
2013-02-19 19:25:00,45.1,45.1,29.60,South,172,2.0,7.0,100,0.04,,---,0.22,VWS V14.01,2013-02-20 00:25:00,
2013-02-19 19:26:00,45.1,45.1,29.60,South,182,7.0,7.0,100,0.04,,---,0.22,VWS V14.01,2013-02-20 00:26:00,
2013-02-19 19:29:00,44.9,44.9,29.59,South,169,0.0,7.0,100,0.04,,---,0.22,VWS V14.01,2013-02-20 00:29:00,
2013-02-19 19:30:00,44.9,44.9,29.59,South,169,0.0,7.0,100,0.04,,---,0.22,VWS V14.01,2013-02-20 00:30:00,
2013-02-19 19:31:00,44.9,44.9,29.59,SSE,165,0.0,1.0,100,0.03,,---,0.22,VWS V14.01,2013-02-20 00:31:00,
2013-02-19 19:35:00,44.9,44.9,29.59,SSE,168,0.0,5.0,100,0.03,,---,0.22,VWS V14.01,2013-02-20 00:35:00,
2013-02-19 19:36:00,44.8,44.8,29.59,SSE,168,0.0,5.0,100,0.03,,---,0.22,VWS V14.01,2013-02-20 00:36:00,
2013-02-19 19:40:00,44.6,44.6,29.59,SSE,168,0.0,5.0,100,0.03,,---,0.22,VWS V14.01,2013-02-20 00:40:00,
2013-02-19 19:41:00,44.6,44.6,29.59,SSE,168,0.0,5.0,100,0.03,,---,0.22,VWS V14.01,2013-02-20 00:41:00,
2013-02-19 19:45:00,44.6,44.6,29.58,SSE,162,0.0,5.0,100,0.04,,---,0.23,VWS V14.01,2013-02-20 00:45:00,
2013-02-19 19:46:00,44.6,44.6,29.58,SSE,162,0.0,0.0,100,0.02,,---,0.23,VWS V14.01,2013-02-20 00:46:00,
2013-02-19 19:50:00,44.6,44.6,29.58,South,175,0.0,11.0,100,0.03,,---,0.24,VWS V14.01,2013-02-20 00:50:00,
2013-02-19 19:51:00,44.6,44.6,29.58,South,175,0.0,11.0,100,0.03,,---,0.24,VWS V14.01,2013-02-20 00:51:00,
2013-02-19 19:55:00,44.8,44.8,29.58,SSE,167,0.0,11.0,100,0.04,,---,0.25,VWS V14.01,2013-02-20 00:55:00,
2013-02-19 19:56:00,44.6,44.6,29.58,SSE,167,0.0,11.0,100,0.04,,---,0.25,VWS V14.01,2013-02-20 00:56:00,
2013-02-19 20:00:00,44.6,44.6,29.56,South,174,2.0,11.0,100,0.04,,---,0.25,VWS V14.01,2013-02-20 01:00:00,
2013-02-19 20:01:00,44.6,44.6,29.56,SSW,195,3.0,7.0,100,0.04,,---,0.25,VWS V14.01,2013-02-20 01:01:00,
2013-02-19 20:06:00,44.5,44.5,29.56,WSW,248,2.0,7.0,100,0.05,,---,0.26,VWS V14.01,2013-02-20 01:06:00,
2013-02-19 20:07:00,44.5,44.5,29.56,SW,220,3.0,7.0,100,0.05,,---,0.26,VWS V14.01,2013-02-20 01:07:00,
2013-02-19 20:11:00,44.6,44.6,29.56,SW,217,2.0,12.0,100,0.05,,---,0.26,VWS V14.01,2013-02-20 01:11:00,
2013-02-19 20:12:00,44.5,44.5,29.56,West,280,2.0,12.0,100,0.05,,---,0.26,VWS V14.01,2013-02-20 01:12:00,
2013-02-19 20:16:00,44.5,44.5,29.56,West,278,1.0,5.0,100,0.05,,---,0.26,VWS V14.01,2013-02-20 01:16:00,
2013-02-19 20:17:00,44.5,44.5,29.56,WSW,256,6.0,8.0,100,0.05,,---,0.26,VWS V14.01,2013-02-20 01:17:00,
2013-02-19 20:21:00,44.6,44.6,29.56,WSW,247,6.0,12.0,100,0.05,,---,0.26,VWS V14.01,2013-02-20 01:21:00,
2013-02-19 20:22:00,44.6,44.6,29.56,West,265,8.0,12.0,100,0.05,,---,0.26,VWS V14.01,2013-02-20 01:22:00,
2013-02-19 20:26:00,44.6,44.6,29.56,SW,224,5.0,12.0,100,0.06,,---,0.27,VWS V14.01,2013-02-20 01:26:00,
2013-02-19 20:27:00,44.6,44.6,29.56,SW,226,2.0,12.0,100,0.06,,---,0.27,VWS V14.01,2013-02-20 01:27:00,
2013-02-19 20:31:00,44.5,44.5,29.56,WSW,258,5.0,7.0,100,0.06,,---,0.28,VWS V14.01,2013-02-20 01:31:00,
2013-02-19 20:32:00,44.5,44.5,29.56,WSW,237,5.0,7.0,100,0.06,,---,0.28,VWS V14.01,2013-02-20 01:32:00,
2013-02-19 20:36:00,44.5,44.5,29.56,WSW,244,6.0,10.0,100,0.07,,---,0.29,VWS V14.01,2013-02-20 01:36:00,
2013-02-19 20:37:00,44.5,44.5,29.56,WNW,282,3.0,10.0,100,0.07,,---,0.29,VWS V14.01,2013-02-20 01:37:00,
2013-02-19 20:41:00,44.3,44.3,29.56,West,275,0.0,10.0,100,0.07,,---,0.29,VWS V14.01,2013-02-20 01:41:00,
2013-02-19 20:42:00,44.3,44.3,29.56,West,260,5.0,10.0,100,0.07,,---,0.29,VWS V14.01,2013-02-20 01:42:00,
2013-02-19 20:46:00,44.2,44.2,29.56,WSW,254,6.0,6.0,100,0.07,,---,0.30,VWS V14.01,2013-02-20 01:46:00,
2013-02-19 20:47:00,44.2,44.2,29.56,WSW,254,2.0,6.0,100,0.07,,---,0.30,VWS V14.01,2013-02-20 01:47:00,
2013-02-19 20:51:00,44.1,44.1,29.56,WSW,258,4.0,7.0,100,0.07,,---,0.30,VWS V14.01,2013-02-20 01:51:00,
2013-02-19 20:52:00,44.1,44.1,29.56,WSW,257,6.0,7.0,100,0.07,,---,0.30,VWS V14.01,2013-02-20 01:52:00,
2013-02-19 20:56:00,44.1,44.1,29.56,SW,232,5.0,7.0,100,0.07,,---,0.30,VWS V14.01,2013-02-20 01:56:00,
2013-02-19 20:57:00,44.1,44.1,29.56,West,261,1.0,7.0,100,0.07,,---,0.30,VWS V14.01,2013-02-20 01:57:00,
2013-02-19 21:01:00,44.1,44.1,29.55,West,263,2.0,2.0,100,0.05,,---,0.30,VWS V14.01,2013-02-20 02:01:00,
2013-02-19 21:02:00,44.1,44.1,29.55,West,261,2.0,2.0,100,0.05,,---,0.30,VWS V14.01,2013-02-20 02:02:00,
2013-02-19 21:07:00,43.9,43.9,29.55,West,270,3.0,7.0,100,0.06,,---,0.31,VWS V14.01,2013-02-20 02:07:00,
2013-02-19 21:12:00,43.9,43.9,29.55,West,270,6.0,11.0,100,0.06,,---,0.31,VWS V14.01,2013-02-20 02:12:00,
2013-02-19 21:17:00,43.8,43.8,29.55,West,260,4.0,5.0,100,0.05,,---,0.31,VWS V14.01,2013-02-20 02:17:00,
2013-02-19 21:18:00,43.8,43.8,29.55,West,281,0.0,5.0,100,0.05,,---,0.31,VWS V14.01,2013-02-20 02:18:00,
2013-02-19 21:22:00,43.8,43.8,29.55,West,277,10.0,10.0,100,0.05,,---,0.31,VWS V14.01,2013-02-20 02:22:00,
2013-02-19 21:23:00,43.8,43.8,29.55,WNW,295,3.0,10.0,100,0.05,,---,0.31,VWS V14.01,2013-02-20 02:23:00,
2013-02-19 21:27:00,43.6,43.6,29.55,WSW,254,5.0,10.0,100,0.05,,---,0.31,VWS V14.01,2013-02-20 02:27:00,
2013-02-19 21:28:00,43.6,43.6,29.55,West,277,4.0,10.0,100,0.05,,---,0.31,VWS V14.01,2013-02-20 02:28:00,
2013-02-19 21:32:00,43.6,43.6,29.54,West,261,6.0,7.0,100,0.03,,---,0.31,VWS V14.01,2013-02-20 02:32:00,
2013-02-19 21:33:00,43.6,43.6,29.54,West,278,7.0,7.0,100,0.03,,---,0.31,VWS V14.01,2013-02-20 02:33:00,
2013-02-19 21:37:00,43.6,43.6,29.54,WSW,257,4.0,8.0,100,0.03,,---,0.31,VWS V14.01,2013-02-20 02:37:00,
2013-02-19 21:38:00,43.6,43.6,29.54,West,263,8.0,10.0,100,0.03,,---,0.31,VWS V14.01,2013-02-20 02:38:00,
2013-02-19 21:42:00,43.5,43.5,29.54,WSW,256,0.0,10.0,100,0.03,,---,0.31,VWS V14.01,2013-02-20 02:42:00,
2013-02-19 21:43:00,43.3,43.3,29.54,WSW,258,3.0,10.0,100,0.03,,---,0.31,VWS V14.01,2013-02-20 02:43:00,
2013-02-19 21:47:00,43.3,43.3,29.53,West,264,1.0,7.0,100,0.02,,---,0.31,VWS V14.01,2013-02-20 02:47:00,
2013-02-19 21:48:00,43.3,43.3,29.53,West,264,0.0,7.0,100,0.02,,---,0.31,VWS V14.01,2013-02-20 02:48:00,
2013-02-19 21:52:00,43.2,43.2,29.53,West,264,2.0,7.0,100,0.02,,---,0.31,VWS V14.01,2013-02-20 02:52:00,
2013-02-19 21:53:00,43.2,43.2,29.53,West,264,0.0,7.0,100,0.02,,---,0.31,VWS V14.01,2013-02-20 02:53:00,
2013-02-19 21:57:00,43.2,43.2,29.53,West,265,2.0,7.0,100,0.02,,---,0.31,VWS V14.01,2013-02-20 02:57:00,
2013-02-19 21:58:00,43.2,43.2,29.53,West,265,0.0,7.0,100,0.02,,---,0.31,VWS V14.01,2013-02-20 02:58:00,
2013-02-19 22:02:00,43.1,43.1,29.53,West,274,2.0,5.0,100,0.01,,---,0.31,VWS V14.01,2013-02-20 03:02:00,
2013-02-19 22:03:00,43.1,43.1,29.53,West,278,4.0,8.0,100,0.01,,---,0.31,VWS V14.01,2013-02-20 03:03:00,
2013-02-19 22:07:00,43.1,43.1,29.53,WNW,285,5.0,8.0,100,0.01,,---,0.31,VWS V14.01,2013-02-20 03:07:00,
2013-02-19 22:08:00,43.1,43.1,29.53,West,271,9.0,9.0,100,0.01,,---,0.31,VWS V14.01,2013-02-20 03:08:00,
2013-02-19 22:09:00,43.1,43.1,29.53,West,260,5.0,9.0,100,0.01,,---,0.31,VWS V14.01,2013-02-20 03:09:00,
2013-02-19 22:12:00,43.1,43.1,29.53,WNW,292,0.0,9.0,100,0.01,,---,0.31,VWS V14.01,2013-02-20 03:12:00,
2013-02-19 22:13:00,43.1,43.1,29.53,WNW,289,1.0,9.0,100,0.01,,---,0.31,VWS V14.01,2013-02-20 03:13:00,
2013-02-19 22:14:00,42.9,42.9,29.53,West,278,1.0,9.0,100,0.01,,---,0.31,VWS V14.01,2013-02-20 03:14:00,
2013-02-19 22:17:00,42.8,42.8,29.53,West,270,6.0,6.0,100,0.00,,---,0.31,VWS V14.01,2013-02-20 03:17:00,
2013-02-19 22:18:00,42.8,42.8,29.53,WNW,282,4.0,6.0,100,0.00,,---,0.31,VWS V14.01,2013-02-20 03:18:00,
2013-02-19 22:19:00,42.8,42.8,29.53,WNW,301,2.0,6.0,100,0.00,,---,0.31,VWS V14.01,2013-02-20 03:19:00,
2013-02-19 22:22:00,42.8,42.8,29.53,West,267,8.0,8.0,100,0.00,,---,0.31,VWS V14.01,2013-02-20 03:22:00,
2013-02-19 22:23:00,42.8,42.8,29.53,West,280,3.0,8.0,100,0.00,,---,0.31,VWS V14.01,2013-02-20 03:23:00,
2013-02-19 22:24:00,42.8,42.8,29.53,WNW,287,2.0,8.0,100,0.00,,---,0.31,VWS V14.01,2013-02-20 03:24:00,
2013-02-19 22:27:00,42.8,42.8,29.53,WSW,257,0.0,8.0,100,0.00,,---,0.31,VWS V14.01,2013-02-20 03:27:00,
2013-02-19 22:28:00,42.8,42.8,29.53,West,261,2.0,8.0,100,0.00,,---,0.31,VWS V14.01,2013-02-20 03:28:00,
2013-02-19 22:29:00,42.8,42.8,29.53,West,260,2.0,8.0,100,0.00,,---,0.31,VWS V14.01,2013-02-20 03:29:00,
2013-02-19 22:32:00,42.8,42.8,29.53,West,275,8.0,8.0,100,0.00,,---,0.31,VWS V14.01,2013-02-20 03:32:00,
2013-02-19 22:33:00,42.8,42.8,29.53,WNW,296,1.0,8.0,100,0.00,,---,0.31,VWS V14.01,2013-02-20 03:33:00,
2013-02-19 22:35:00,42.8,42.8,29.53,WNW,292,5.0,8.0,100,0.00,,---,0.31,VWS V14.01,2013-02-20 03:35:00,
2013-02-19 22:37:00,42.8,42.8,29.53,WNW,295,5.0,8.0,100,0.00,,---,0.31,VWS V14.01,2013-02-20 03:37:00,
2013-02-19 22:38:00,42.8,42.8,29.53,WNW,284,6.0,8.0,100,0.00,,---,0.31,VWS V14.01,2013-02-20 03:38:00,
2013-02-19 22:40:00,42.8,42.8,29.53,West,280,11.0,11.0,100,0.00,,---,0.31,VWS V14.01,2013-02-20 03:40:00,
2013-02-19 22:42:00,42.8,42.8,29.53,West,264,1.0,11.0,100,0.00,,---,0.31,VWS V14.01,2013-02-20 03:42:00,
2013-02-19 22:43:00,42.8,42.8,29.53,WNW,296,3.0,11.0,100,0.00,,---,0.31,VWS V14.01,2013-02-20 03:43:00,
2013-02-19 22:45:00,42.8,42.8,29.53,WNW,291,5.0,11.0,100,0.01,,---,0.32,VWS V14.01,2013-02-20 03:45:00,
2013-02-19 22:48:00,42.8,42.8,29.53,WNW,291,0.0,6.0,100,0.01,,---,0.32,VWS V14.01,2013-02-20 03:48:00,
2013-02-19 22:49:00,42.8,42.8,29.53,WNW,292,2.0,6.0,100,0.01,,---,0.32,VWS V14.01,2013-02-20 03:49:00,
2013-02-19 22:50:00,42.6,42.6,29.53,NW,304,3.0,6.0,100,0.01,,---,0.32,VWS V14.01,2013-02-20 03:50:00,
2013-02-19 22:53:00,42.5,42.5,29.53,NW,315,6.0,7.0,100,0.01,,---,0.32,VWS V14.01,2013-02-20 03:53:00,
2013-02-19 22:54:00,42.5,42.5,29.53,WNW,285,8.0,8.0,100,0.01,,---,0.32,VWS V14.01,2013-02-20 03:54:00,
2013-02-19 22:55:00,42.5,42.5,29.53,WNW,289,3.0,12.0,100,0.01,,---,0.32,VWS V14.01,2013-02-20 03:55:00,
2013-02-19 22:58:00,42.5,42.5,29.53,NW,313,2.0,12.0,100,0.01,,---,0.32,VWS V14.01,2013-02-20 03:58:00,
2013-02-19 22:59:00,42.5,42.5,29.53,WNW,282,3.0,12.0,100,0.01,,---,0.32,VWS V14.01,2013-02-20 03:59:00,
2013-02-19 23:01:00,42.5,42.5,29.52,WNW,282,0.0,3.0,100,0.01,,---,0.32,VWS V14.01,2013-02-20 04:01:00,
2013-02-19 23:03:00,42.3,42.3,29.52,West,270,4.0,6.0,100,0.01,,---,0.32,VWS V14.01,2013-02-20 04:03:00,
2013-02-19 23:04:00,42.3,42.3,29.52,WNW,294,3.0,8.0,100,0.01,,---,0.32,VWS V14.01,2013-02-20 04:04:00,
2013-02-19 23:06:00,42.3,42.3,29.52,WNW,294,1.0,8.0,100,0.01,,---,0.32,VWS V14.01,2013-02-20 04:06:00,
2013-02-19 23:08:00,42.2,41.9,29.52,WNW,294,0.0,8.0,99,0.01,,---,0.32,VWS V14.01,2013-02-20 04:08:00,
2013-02-19 23:09:00,42.2,41.9,29.52,WNW,294,0.0,8.0,99,0.01,,---,0.32,VWS V14.01,2013-02-20 04:09:00,
2013-02-19 23:11:00,42.2,41.9,29.52,WNW,294,2.0,8.0,99,0.01,,---,0.32,VWS V14.01,2013-02-20 04:11:00,
2013-02-19 23:13:00,42.1,41.6,29.52,WNW,294,0.0,8.0,98,0.01,,---,0.32,VWS V14.01,2013-02-20 04:13:00,
2013-02-19 23:14:00,42.1,41.6,29.52,WNW,294,0.0,8.0,98,0.01,,---,0.32,VWS V14.01,2013-02-20 04:14:00,
2013-02-19 23:17:00,41.9,41.4,29.52,WNW,294,1.0,3.0,98,0.01,,---,0.32,VWS V14.01,2013-02-20 04:17:00,
2013-02-19 23:18:00,41.9,41.4,29.52,WNW,294,0.0,3.0,98,0.01,,---,0.32,VWS V14.01,2013-02-20 04:18:00,
2013-02-19 23:19:00,41.9,41.4,29.52,WNW,294,1.0,3.0,98,0.01,,---,0.32,VWS V14.01,2013-02-20 04:19:00,
2013-02-19 23:20:00,41.9,41.4,29.52,WNW,294,0.0,3.0,98,0.01,,---,0.32,VWS V14.01,2013-02-20 04:20:00,
2013-02-19 23:22:00,41.8,41.3,29.52,WNW,294,3.0,3.0,98,0.01,,---,0.32,VWS V14.01,2013-02-20 04:22:00,
2013-02-19 23:23:00,41.8,41.3,29.52,WNW,294,0.0,3.0,98,0.01,,---,0.32,VWS V14.01,2013-02-20 04:23:00,
2013-02-19 23:24:00,41.8,41.3,29.52,WNW,294,0.0,3.0,98,0.01,,---,0.32,VWS V14.01,2013-02-20 04:24:00,
2013-02-19 23:25:00,41.8,41.3,29.52,WNW,294,0.0,3.0,98,0.01,,---,0.32,VWS V14.01,2013-02-20 04:25:00,
2013-02-19 23:27:00,41.8,41.3,29.52,WNW,294,0.0,3.0,98,0.01,,---,0.32,VWS V14.01,2013-02-20 04:27:00,
2013-02-19 23:29:00,41.8,41.3,29.52,WNW,294,0.0,3.0,98,0.01,,---,0.32,VWS V14.01,2013-02-20 04:29:00,
2013-02-19 23:30:00,41.8,41.3,29.51,WNW,294,0.0,3.0,98,0.01,,---,0.32,VWS V14.01,2013-02-20 04:30:00,
2013-02-19 23:32:00,41.8,41.3,29.51,WNW,294,0.0,0.0,98,0.01,,---,0.32,VWS V14.01,2013-02-20 04:32:00,
2013-02-19 23:34:00,41.8,41.0,29.51,WNW,294,0.0,0.0,97,0.01,,---,0.32,VWS V14.01,2013-02-20 04:34:00,
2013-02-19 23:35:00,41.8,41.0,29.51,WNW,294,1.0,1.0,97,0.01,,---,0.32,VWS V14.01,2013-02-20 04:35:00,
2013-02-19 23:38:00,41.6,40.8,29.51,WNW,294,1.0,2.0,97,0.01,,---,0.32,VWS V14.01,2013-02-20 04:38:00,
2013-02-19 23:39:00,41.6,40.8,29.51,West,263,1.0,6.0,97,0.01,,---,0.32,VWS V14.01,2013-02-20 04:39:00,
2013-02-19 23:40:00,41.6,40.8,29.51,West,263,1.0,6.0,97,0.01,,---,0.32,VWS V14.01,2013-02-20 04:40:00,
2013-02-19 23:43:00,41.5,40.7,29.51,WSW,258,2.0,6.0,97,0.01,,---,0.32,VWS V14.01,2013-02-20 04:43:00,
2013-02-19 23:44:00,41.5,40.7,29.51,WSW,256,0.0,6.0,97,0.01,,---,0.32,VWS V14.01,2013-02-20 04:44:00,
2013-02-19 23:45:00,41.5,40.7,29.51,WSW,256,6.0,6.0,97,0.01,,---,0.32,VWS V14.01,2013-02-20 04:45:00,
2013-02-19 23:48:00,41.3,40.5,29.52,WSW,248,1.0,5.0,97,0.00,,---,0.32,VWS V14.01,2013-02-20 04:48:00,
2013-02-19 23:49:00,41.3,40.5,29.52,WSW,248,2.0,5.0,97,0.00,,---,0.32,VWS V14.01,2013-02-20 04:49:00,
2013-02-19 23:50:00,41.3,40.5,29.52,WSW,248,2.0,5.0,97,0.00,,---,0.32,VWS V14.01,2013-02-20 04:50:00,
2013-02-19 23:53:00,41.3,40.5,29.52,West,264,6.0,7.0,97,0.00,,---,0.32,VWS V14.01,2013-02-20 04:53:00,
2013-02-19 23:54:00,41.3,40.5,29.52,West,260,2.0,7.0,97,0.00,,---,0.32,VWS V14.01,2013-02-20 04:54:00,
2013-02-19 23:55:00,41.3,40.5,29.52,SSW,210,0.0,7.0,97,0.00,,---,0.32,VWS V14.01,2013-02-20 04:55:00,
2013-02-19 23:58:00,41.2,40.4,29.52,WSW,250,0.0,7.0,97,0.00,,---,0.32,VWS V14.01,2013-02-20 04:58:00,
2013-02-19 23:59:00,41.2,40.4,29.52,WSW,250,0.0,7.0,97,0.00,,---,0.32,VWS V14.01,2013-02-20 04:59:00,